CW1648 Weather Reports


time (UTC)temp
C
wind
direction
speed
KPH
gust
KPH
rain 1hr
cm
rain 24hr
cm
rain mn
cm
humidity
%
barometer
mb
20260508141310 16 215 0.0 0.0 0.00 0.00 0.00 42 1010.4
20260508141257 16 215 0.0 0.0 0.00 0.00 0.00 45 1010.4
20260508141155 16 247 0.0 0.0 0.00 0.00 0.00 44 1010.4
20260508141055 15 257 0.0 1.6 0.00 0.00 0.00 44 1010.2
20260508141018 16 212 0.0 0.0 0.00 0.00 0.00 42 1010.3
20260508140954 15 207 0.0 1.6 0.00 0.00 0.00 42 1010.4
20260508140914 15 244 0.0 3.2 0.00 0.00 0.00 42 1006.8
20260508140909 15 207 0.0 1.6 0.00 0.00 0.00 42 1010.3
20260508140901 15 179 0.0 1.6 0.00 0.00 0.00 43 1006.8
20260508140654 15 253 0.0 3.2 0.00 0.00 0.00 42 1006.8
20260508140553 15 239 0.0 3.2 0.00 0.00 0.00 43 1006.8
20260508140518 15 231 0.0 3.2 0.00 0.00 0.00 43 1006.7
20260508140452 15 232 0.0 3.2 0.00 0.00 0.00 43 1006.8
20260508140350 15 234 0.0 3.2 0.00 0.00 0.00 45 1006.8
20260508140310 15 249 0.0 3.2 0.00 0.00 0.00 43 1006.8
20260508140249 15 225 0.0 3.2 0.00 0.00 0.00 44 1006.8
20260508140149 15 260 0.0 3.2 0.00 0.00 0.00 44 1006.8
20260508140048 15 260 0.0 3.2 0.00 0.00 0.00 44 1006.8
20260508140018 15 293 0.0 3.2 0.00 0.00 0.00 44 1006.9
20260508135948 15 288 0.0 3.2 0.00 0.00 0.00 44 1007.1
20260508135905 15 312 0.0 8.0 0.00 0.00 0.00 46 1007.2
20260508135900 15 304 0.0 3.2 0.00 0.00 0.00 43 1007.4
20260508135852 15 302 0.0 3.2 0.00 0.00 0.00 46 1007.2
20260508135645 15 213 0.0 8.0 0.00 0.00 0.00 44 1007.2
20260508135543 15 230 0.0 8.0 0.00 0.00 0.00 46 1007.3
20260508135518 15 244 0.0 8.0 0.00 0.00 0.00 46 1007.2
20260508135443 15 221 0.0 8.0 0.00 0.00 0.00 46 1007.3
20260508135341 14 0 0.0 8.0 0.00 0.00 0.00 45 1007.8
20260508135309 14 210 0.0 8.0 0.00 0.00 0.00 45 1007.4
20260508135240 14 209 0.0 8.0 0.00 0.00 0.00 45 1007.4
20260508135140 14 0 0.0 8.0 0.00 0.00 0.00 47 1007.4
20260508135053 14 0 0.0 8.0 0.00 0.00 0.00 47 1007.3
20260508135048 14 360 0.0 8.0 0.00 0.00 0.00 48 1007.2
20260508134838 14 0 0.0 8.0 0.00 0.00 0.00 46 1007.3
20260508134808 14 0 0.0 8.0 0.00 0.00 0.00 47 1007.4
20260508134739 14 0 0.0 4.8 0.00 0.00 0.00 47 1007.4
20260508134638 14 0 0.0 4.8 0.00 0.00 0.00 47 1007.7
20260508134538 14 0 0.0 4.8 0.00 0.00 0.00 48 1010.7
20260508134533 14 360 0.0 3.2 0.00 0.00 0.00 48 1010.6
20260508134437 14 0 0.0 4.8 0.00 0.00 0.00 50 1010.7
20260508134337 14 0 0.0 4.8 0.00 0.00 0.00 49 1010.7
20260508134307 14 0 0.0 4.8 0.00 0.00 0.00 50 1010.7
20260508134236 14 0 0.0 4.8 0.00 0.00 0.00 50 1010.7
20260508134136 13 0 0.0 4.8 0.00 0.00 0.00 49 1010.3
20260508134048 13 0 0.0 4.8 0.00 0.00 0.00 48 1010.3
20260508134043 13 0 0.0 4.8 0.00 0.00 0.00 48 1010.3
20260508134018 13 360 0.0 3.2 0.00 0.00 0.00 48 1010.2
20260508133833 13 0 0.0 4.8 0.00 0.00 0.00 48 1010.6
20260508133810 13 0 0.0 4.8 0.00 0.00 0.00 49 1010.5
20260508133804 13 0 0.0 1.6 0.00 0.00 0.00 49 1010.2
20260508133759 13 0 0.0 1.6 0.00 0.00 0.00 49 1010.6
20260508133755 13 0 0.0 1.6 0.00 0.00 0.00 49 1010.6
20260508133751 13 0 0.0 1.6 0.00 0.00 0.00 49 1010.6
20260508133746 13 0 0.0 0.0 0.00 0.00 0.00 49 1010.5
20260508133627 13 0 0.0 1.6 0.00 0.00 0.00 48 1010.7
20260508133533 13 360 0.0 1.6 0.00 0.00 0.00 48 1010.6
20260508133516 13 0 0.0 1.6 0.00 0.00 0.00 47 1010.8
20260508133509 13 0 0.0 1.6 0.00 0.00 0.00 48 1010.7
20260508133500 13 0 0.0 1.6 0.00 0.00 0.00 49 1010.6
20260508133018 13 360 0.0 1.6 0.00 0.00 0.00 48 1010.8
20260508132925 13 0 0.0 1.6 0.00 0.00 0.00 47 1010.9
20260508132912 13 0 0.0 1.6 0.00 0.00 0.00 47 1010.9
20260508132725 13 0 0.0 1.6 0.00 0.00 0.00 48 1010.8
20260508132624 13 0 0.0 0.0 0.00 0.00 0.00 49 1010.8
20260508132527 13 0 0.0 0.0 0.00 0.00 0.00 48 1009.8
20260508132521 13 0 0.0 0.0 0.00 0.00 0.00 49 1010.7
20260508132518 13 360 0.0 0.0 0.00 0.00 0.00 48 1010.7
20260508132421 13 0 0.0 0.0 0.00 0.00 0.00 49 1010.8
20260508132411 13 0 0.0 0.0 0.00 0.00 0.00 48 1010.8
20260508132219 13 0 0.0 0.0 0.00 0.00 0.00 49 1009.8
20260508132119 13 0 0.0 0.0 0.00 0.00 0.00 51 1009.8
20260508132026 13 0 0.0 0.0 0.00 0.00 0.00 50 1011.2
20260508132019 13 0 0.0 0.0 0.00 0.00 0.00 52 1010.9
20260508131918 13 0 0.0 0.0 0.00 0.00 0.00 51 1010.9
20260508131909 13 0 0.0 0.0 0.00 0.00 0.00 50 1011.1
20260508131732 13 0 0.0 0.0 0.00 0.00 0.00 49 1011.3
20260508131727 13 0 0.0 0.0 0.00 0.00 0.00 50 1011.2
20260508131518 13 360 0.0 0.0 0.00 0.00 0.00 48 1011.2
20260508131415 13 0 0.0 0.0 0.00 0.00 0.00 47 1011.3
20260508131335 13 0 0.0 0.0 0.00 0.00 0.00 48 1011.2
20260508131330 13 0 0.0 0.0 0.00 0.00 0.00 48 1011.2
20260508131323 13 0 0.0 0.0 0.00 0.00 0.00 48 1011.2
20260508131116 13 0 0.0 0.0 0.00 0.00 0.00 51 1011.2
20260508131033 13 360 0.0 0.0 0.00 0.00 0.00 53 1011.0
20260508131015 13 0 0.0 0.0 0.00 0.00 0.00 53 1011.1
20260508130914 13 0 0.0 0.0 0.00 0.00 0.00 53 1011.0
20260508130814 13 0 0.0 0.0 0.00 0.00 0.00 54 1011.0
20260508130800 13 0 0.0 0.0 0.00 0.00 0.00 54 1011.0
20260508130729 13 0 0.0 0.0 0.00 0.00 0.00 56 1011.0
20260508130723 13 0 0.0 0.0 0.00 0.00 0.00 55 1011.0
20260508130518 13 360 0.0 0.0 0.00 0.00 0.00 56 1010.9
20260508130442 13 0 0.0 0.0 0.00 0.00 0.00 56 1010.8
20260508130328 13 0 0.0 0.0 0.00 0.00 0.00 55 1010.7
20260508130320 13 0 0.0 0.0 0.00 0.00 0.00 54 1010.7
20260508130131 13 0 0.0 1.6 0.00 0.00 0.00 54 1010.6
20260508130018 13 269 0.0 1.6 0.00 0.00 0.00 56 1010.4
20260508130011 13 255 0.0 1.6 0.00 0.00 0.00 56 1010.5
20260508125923 13 0 0.0 1.6 0.00 0.00 0.00 56 1010.6
20260508125908 13 0 0.0 1.6 0.00 0.00 0.00 57 1010.4
20260508125710 13 237 0.0 1.6 0.00 0.00 0.00 58 1010.6
20260508125610 13 237 0.0 1.6 0.00 0.00 0.00 57 1008.2
20260508125518 13 235 0.0 1.6 0.00 0.00 0.00 58 1008.2
20260508125510 13 238 0.0 1.6 0.00 0.00 0.00 58 1008.2
20260508125409 13 256 0.0 1.6 0.00 0.00 0.00 58 1008.1
20260508125308 13 255 0.0 1.6 0.00 0.00 0.00 57 1008.2
20260508125259 13 255 0.0 1.6 0.00 0.00 0.00 57 1008.2
20260508125207 13 0 0.0 1.6 0.00 0.00 0.00 59 1008.9
20260508125142 13 0 0.0 0.0 0.00 0.00 0.00 60 1008.7
20260508125137 13 0 0.0 0.0 0.00 0.00 0.00 59 1008.8
20260508125023 13 0 0.0 0.0 0.00 0.00 0.00 61 1008.6
20260508125019 13 360 0.0 0.0 0.00 0.00 0.00 61 1008.6
20260508124905 13 0 0.0 0.0 0.00 0.00 0.00 60 1008.8
20260508124705 13 0 0.0 0.0 0.00 0.00 0.00 59 1008.8
20260508124605 13 257 0.0 0.0 0.00 0.00 0.00 60 1009.1
20260508124518 13 283 0.0 0.0 0.00 0.00 0.00 60 1009.0
20260508124513 13 285 0.0 0.0 0.00 0.00 0.00 61 1009.0
20260508124257 13 200 0.0 0.0 0.00 0.00 0.00 62 1008.8
20260508124203 13 200 0.0 0.0 0.00 0.00 0.00 62 1009.0
20260508124102 13 210 0.0 0.0 0.00 0.00 0.00 62 1009.1
20260508124033 13 198 0.0 0.0 0.00 0.00 0.00 63 1009.1
20260508124021 13 222 0.0 0.0 0.00 0.00 0.00 64 1009.3
20260508124002 13 198 0.0 0.0 0.00 0.00 0.00 64 1009.1
20260508123917 13 234 0.0 0.0 0.00 0.00 0.00 64 1009.2
20260508123903 13 222 0.0 0.0 0.00 0.00 0.00 64 1009.3
20260508123700 13 221 0.0 0.0 0.00 0.00 0.00 63 1009.4
20260508123559 12 227 0.0 0.0 0.00 0.00 0.00 64 1009.5
20260508123533 12 360 0.0 0.0 0.00 0.00 0.00 64 1009.5
20260508123459 12 0 0.0 0.0 0.00 0.00 0.00 64 1009.5
20260508123358 12 0 0.0 0.0 0.00 0.00 0.00 64 1009.5
20260508123253 12 0 0.0 0.0 0.00 0.00 0.00 64 1009.6
20260508123158 12 0 0.0 0.0 0.00 0.00 0.00 64 1009.6
20260508123125 12 234 0.0 0.0 0.00 0.00 0.00 65 1009.7
20260508123120 12 251 0.0 0.0 0.00 0.00 0.00 67 1009.9
20260508123116 12 0 0.0 0.0 0.00 0.00 0.00 64 1009.7
20260508123019 12 236 0.0 0.0 0.00 0.00 0.00 65 1009.7
20260508122755 12 266 0.0 0.0 0.00 0.00 0.00 66 1009.9
20260508122706 12 243 0.0 0.0 0.00 0.00 0.00 69 1010.0
20260508122702 12 267 0.0 0.0 0.00 0.00 0.00 67 1009.9
20260508122603 12 234 0.0 0.0 0.00 0.00 0.00 69 1010.1
20260508122529 12 230 0.0 0.0 0.00 0.00 0.00 69 1010.1
20260508122415 12 0 0.0 0.0 0.00 0.00 0.00 69 1010.2
20260508122407 12 0 0.0 0.0 0.00 0.00 0.00 69 1010.0
20260508122049 12 0 0.0 0.0 0.00 0.00 0.00 70 1010.2
20260508122018 12 360 0.0 0.0 0.00 0.00 0.00 69 1010.3
20260508121949 12 0 0.0 0.0 0.00 0.00 0.00 69 1010.3
20260508121849 12 0 0.0 0.0 0.00 0.00 0.00 69 1010.3
20260508121754 12 0 0.0 0.0 0.00 0.00 0.00 70 1010.4
20260508121748 12 0 0.0 0.0 0.00 0.00 0.00 71 1010.4
20260508121648 11 0 0.0 0.0 0.00 0.00 0.00 71 1010.5
20260508121547 11 0 0.0 0.0 0.00 0.00 0.00 71 1010.6
20260508121518 11 0 0.0 0.0 0.00 0.00 0.00 70 1010.6
20260508121514 11 0 0.0 0.0 0.00 0.00 0.00 72 1010.6
20260508121508 11 0 0.0 0.0 0.00 0.00 0.00 70 1010.6
20260508121350 11 0 0.0 0.0 0.00 0.00 0.00 72 1010.6
20260508121144 11 0 0.0 0.0 0.00 0.00 0.00 71 1010.7
20260508121048 11 360 0.0 0.0 0.00 0.00 0.00 71 1011.0
20260508121043 11 0 0.0 0.0 0.00 0.00 0.00 71 1010.7
20260508120943 11 0 0.0 0.0 0.00 0.00 0.00 70 1010.9
20260508120842 11 0 0.0 0.0 0.00 0.00 0.00 69 1011.1
20260508120743 11 0 0.0 1.6 0.00 0.00 0.00 71 1011.2
20260508120655 11 0 0.0 1.6 0.00 0.00 0.00 71 1011.2
20260508120651 11 0 0.0 1.6 0.00 0.00 0.00 71 1011.2
20260508120518 11 360 0.0 1.6 0.00 0.00 0.00 71 1011.2
20260508120509 11 0 0.0 1.6 0.00 0.00 0.00 72 1011.1
20260508120441 11 0 0.0 1.6 0.00 0.00 0.00 71 1011.2
20260508120356 11 0 0.0 1.6 0.00 0.00 0.00 71 1011.3
20260508120241 11 0 0.0 1.6 0.00 0.00 0.00 72 1011.1
20260508120153 11 0 0.0 1.6 0.00 0.00 0.00 71 1011.2
20260508120149 11 0 0.0 1.6 0.00 0.00 0.00 71 1011.1
20260508120019 11 360 0.0 1.6 0.00 0.00 0.00 71 1011.1
20260508115939 11 0 0.0 1.6 0.00 0.00 0.00 72 1011.1
20260508115838 11 0 0.0 1.6 0.00 0.00 0.00 72 1011.2
20260508115748 11 0 0.0 1.6 0.00 0.00 0.00 72 1011.1
20260508115738 11 0 0.0 1.6 0.00 0.00 0.00 72 1011.1
20260508115638 11 0 0.0 1.6 0.00 0.00 0.00 72 1011.2
20260508115619 11 360 0.0 1.6 0.00 0.00 0.00 73 1011.2
20260508115537 11 0 0.0 1.6 0.00 0.00 0.00 73 1011.1
20260508115437 11 0 0.0 0.0 0.00 0.00 0.00 73 1011.1
20260508115351 11 0 0.0 0.0 0.00 0.00 0.00 73 1011.1
20260508115342 10 0 0.0 0.0 0.00 0.00 0.00 74 1011.1
20260508115136 10 0 0.0 0.0 0.00 0.00 0.00 74 1011.1
20260508115048 10 252 0.0 0.0 0.00 0.00 0.00 76 1011.1
20260508115044 10 248 0.0 0.0 0.00 0.00 0.00 74 1011.1
20260508115018 10 248 0.0 0.0 0.00 0.00 0.00 75 1011.2
20260508114903 10 238 0.0 0.0 0.00 0.00 0.00 77 1011.1
20260508114858 10 252 0.0 0.0 0.00 0.00 0.00 76 1011.1
20260508114849 10 238 0.0 0.0 0.00 0.00 0.00 76 1011.1
20260508114533 10 238 0.0 0.0 0.00 0.00 0.00 77 1011.1
20260508114519 10 238 0.0 0.0 0.00 0.00 0.00 78 1011.2
20260508114513 10 238 0.0 0.0 0.00 0.00 0.00 78 1011.1
20260508114508 10 242 0.0 0.0 0.00 0.00 0.00 79 1011.0
20260508114503 10 238 0.0 0.0 0.00 0.00 0.00 78 1011.1
20260508114232 10 242 0.0 0.0 0.00 0.00 0.00 79 1011.0
20260508114132 10 0 0.0 0.0 0.00 0.00 0.00 79 1011.0
20260508114032 10 0 0.0 0.0 0.00 0.00 0.00 79 1011.0
20260508114018 10 360 0.0 0.0 0.00 0.00 0.00 79 1011.1
20260508113944 9 0 0.0 0.0 0.00 0.00 0.00 79 1011.0
20260508113940 9 0 0.0 0.0 0.00 0.00 0.00 79 1011.0
20260508113730 9 0 0.0 0.0 0.00 0.00 0.00 79 1011.0
20260508113630 9 0 0.0 0.0 0.00 0.00 0.00 79 1011.0
20260508113529 9 0 0.0 0.0 0.00 0.00 0.00 80 1011.0
20260508113518 9 360 0.0 0.0 0.00 0.00 0.00 80 1011.1
20260508113443 9 0 0.0 0.0 0.00 0.00 0.00 80 1011.1
20260508113438 9 0 0.0 0.0 0.00 0.00 0.00 80 1011.0
20260508113302 9 0 0.0 0.0 0.00 0.00 0.00 83 1011.3
20260508113257 8 0 0.0 0.0 0.00 0.00 0.00 84 1011.3
20260508113252 9 0 0.0 0.0 0.00 0.00 0.00 81 1011.1
20260508113246 9 0 0.0 0.0 0.00 0.00 0.00 82 1011.1
20260508113018 8 360 0.0 0.0 0.00 0.00 0.00 84 1011.5
20260508112927 8 304 0.0 0.0 0.00 0.00 0.00 84 1011.4
20260508112827 8 0 0.0 0.0 0.00 0.00 0.00 85 1011.4
20260508112739 8 305 0.0 0.0 0.00 0.00 0.00 86 1011.4
20260508112735 8 305 0.0 0.0 0.00 0.00 0.00 85 1011.4
20260508112534 8 305 0.0 0.0 0.00 0.00 0.00 86 1011.5
20260508112525 8 305 0.0 0.0 0.00 0.00 0.00 86 1011.4
20260508112501 8 305 0.0 0.0 0.00 0.00 0.00 86 1011.4
20260508112425 8 305 0.0 0.0 0.00 0.00 0.00 87 1011.4
20260508112352 8 305 0.0 0.0 0.00 0.00 0.00 87 1011.4
20260508112237 8 303 0.0 0.0 0.00 0.00 0.00 87 1011.4
20260508112233 8 305 0.0 0.0 0.00 0.00 0.00 86 1011.4
20260508112023 7 0 0.0 0.0 0.00 0.00 0.00 87 1011.3
20260508112018 7 360 0.0 0.0 0.00 0.00 0.00 87 1011.4
20260508111923 7 0 0.0 0.0 0.00 0.00 0.00 87 1011.3
20260508111822 7 0 0.0 0.0 0.00 0.00 0.00 88 1011.4
20260508111740 7 0 0.0 0.0 0.00 0.00 0.00 88 1011.4
20260508111722 7 0 0.0 0.0 0.00 0.00 0.00 88 1011.4
20260508111621 7 0 0.0 0.0 0.00 0.00 0.00 89 1011.4
20260508111603 7 360 0.0 0.0 0.00 0.00 0.00 89 1011.5
20260508111549 7 0 0.0 0.0 0.00 0.00 0.00 90 1011.4
20260508111543 7 0 0.0 0.0 0.00 0.00 0.00 90 1011.4
20260508111539 7 0 0.0 0.0 0.00 0.00 0.00 89 1011.4
20260508111239 7 0 0.0 0.0 0.00 0.00 0.00 91 1011.4
20260508111221 7 0 0.0 0.0 0.00 0.00 0.00 91 1011.4
20260508111120 7 0 0.0 0.0 0.00 0.00 0.00 91 1011.4
20260508111020 7 0 0.0 0.0 0.00 0.00 0.00 92 1011.4
20260508111018 7 360 0.0 0.0 0.00 0.00 0.00 92 1011.5
20260508110932 6 0 0.0 0.0 0.00 0.00 0.00 92 1011.4
20260508110928 7 0 0.0 0.0 0.00 0.00 0.00 92 1011.4
20260508110737 6 0 0.0 0.0 0.00 0.00 0.00 92 1011.4
20260508110718 6 0 0.0 0.0 0.00 0.00 0.00 92 1011.4
20260508110630 6 0 0.0 0.0 0.00 0.00 0.00 93 1011.3
20260508110626 6 0 0.0 0.0 0.00 0.00 0.00 93 1011.3
20260508110518 6 360 0.0 0.0 0.00 0.00 0.00 93 1011.4
20260508110413 6 0 0.0 0.0 0.00 0.00 0.00 93 1011.3
20260508110313 6 0 0.0 0.0 0.00 0.00 0.00 93 1011.3
20260508110213 6 0 0.0 0.0 0.00 0.00 0.00 93 1011.3
20260508110113 6 0 0.0 0.0 0.00 0.00 0.00 93 1011.3
20260508110018 6 360 0.0 0.0 0.00 0.00 0.00 93 1011.4
20260508110013 5 0 0.0 0.0 0.00 0.00 0.00 93 1011.3
20260508105913 5 0 0.0 0.0 0.00 0.00 0.00 92 1011.3
20260508105811 5 0 0.0 0.0 0.00 0.00 0.00 92 1011.3
20260508105746 5 0 0.0 0.0 0.00 0.00 0.00 92 1011.3
20260508105633 5 0 0.0 0.0 0.00 0.00 0.00 92 1011.2
20260508105628 5 0 0.0 0.0 0.00 0.00 0.00 92 1011.2
20260508105518 5 360 0.0 0.0 0.00 0.00 0.00 92 1011.3
20260508105309 5 0 0.0 0.0 0.00 0.00 0.00 92 1011.1
20260508105255 5 0 0.0 0.0 0.00 0.00 0.00 93 1011.0
20260508105251 5 0 0.0 0.0 0.00 0.00 0.00 92 1011.1
20260508105244 5 0 0.0 0.0 0.00 0.00 0.00 92 1011.0
20260508105021 5 0 0.0 0.0 0.00 0.00 0.00 92 1011.0
20260508105017 5 0 0.0 0.0 0.00 0.00 0.00 93 1011.0
20260508104842 5 0 0.0 0.0 0.00 0.00 0.00 92 1011.0
20260508104708 4 0 0.0 0.0 0.00 0.00 0.00 92 1011.0
20260508104607 4 0 0.0 0.0 0.00 0.00 0.00 92 1011.0
20260508104533 4 360 0.0 0.0 0.00 0.00 0.00 92 1011.2
20260508104506 4 0 0.0 0.0 0.00 0.00 0.00 92 1011.0
20260508104418 4 0 0.0 0.0 0.00 0.00 0.00 92 1011.0
20260508104414 4 0 0.0 0.0 0.00 0.00 0.00 92 1011.0
20260508104233 4 0 0.0 0.0 0.00 0.00 0.00 92 1011.0
20260508104218 4 0 0.0 0.0 0.00 0.00 0.00 91 1010.9
20260508104214 4 0 0.0 0.0 0.00 0.00 0.00 92 1010.9
20260508104018 4 360 0.0 0.0 0.00 0.00 0.00 91 1011.1
20260508104004 4 0 0.0 0.0 0.00 0.00 0.00 91 1010.9
20260508103903 4 0 0.0 0.0 0.00 0.00 0.00 91 1010.9
20260508103734 4 0 0.0 0.0 0.00 0.00 0.00 91 1010.9
20260508103702 4 0 0.0 0.0 0.00 0.00 0.00 91 1010.9
20260508103601 4 0 0.0 0.0 0.00 0.00 0.00 91 1010.9
20260508103518 4 360 0.0 0.0 0.00 0.00 0.00 91 1011.1
20260508103500 4 0 0.0 0.0 0.00 0.00 0.00 91 1010.9
20260508103401 4 0 0.0 0.0 0.00 0.00 0.00 91 1010.9
20260508103300 4 0 0.0 0.0 0.00 0.00 0.00 91 1011.0
20260508103232 3 0 0.0 0.0 0.00 0.00 0.00 91 1011.0
20260508103159 3 0 0.0 0.0 0.00 0.00 0.00 91 1011.0
20260508103059 3 0 0.0 0.0 0.00 0.00 0.00 90 1011.0
20260508103018 3 360 0.0 0.0 0.00 0.00 0.00 90 1011.2
20260508102959 3 0 0.0 0.0 0.00 0.00 0.00 90 1011.0
20260508102858 3 0 0.0 0.0 0.00 0.00 0.00 90 1011.0
20260508102729 3 0 0.0 0.0 0.00 0.00 0.00 90 1011.0
20260508102656 3 0 0.0 0.0 0.00 0.00 0.00 90 1010.9
20260508102555 3 0 0.0 0.0 0.00 0.00 0.00 90 1011.0
20260508102518 3 360 0.0 0.0 0.00 0.00 0.00 90 1011.1
20260508102455 3 0 0.0 0.0 0.00 0.00 0.00 90 1010.9
20260508102354 3 0 0.0 0.0 0.00 0.00 0.00 90 1010.9
20260508102254 3 0 0.0 0.0 0.00 0.00 0.00 90 1010.9
20260508102229 3 0 0.0 0.0 0.00 0.00 0.00 90 1010.9
20260508102207 3 304 0.0 0.0 0.00 0.00 0.00 89 1010.9
20260508102203 3 0 0.0 0.0 0.00 0.00 0.00 90 1010.9
20260508102018 3 360 0.0 0.0 0.00 0.00 0.00 89 1011.0
20260508101953 3 0 0.0 0.0 0.00 0.00 0.00 89 1010.8
20260508101852 3 304 0.0 0.0 0.00 0.00 0.00 89 1010.8
20260508101727 3 305 0.0 0.0 0.00 0.00 0.00 89 1010.8
20260508101652 3 305 0.0 0.0 0.00 0.00 0.00 89 1010.8
20260508101552 3 305 0.0 0.0 0.00 0.00 0.00 89 1010.9
20260508101518 3 305 0.0 0.0 0.00 0.00 0.00 89 1011.1
20260508101451 3 305 0.0 0.0 0.00 0.00 0.00 89 1010.9
20260508101351 3 305 0.0 0.0 0.00 0.00 0.00 89 1010.9
20260508101308 3 305 0.0 0.0 0.00 0.00 0.00 88 1010.8
20260508101303 3 305 0.0 0.0 0.00 0.00 0.00 89 1010.8
20260508101255 3 305 0.0 0.0 0.00 0.00 0.00 89 1010.8
20260508101047 3 305 0.0 0.0 0.00 0.00 0.00 88 1010.8
20260508101033 3 305 0.0 0.0 0.00 0.00 0.00 88 1011.0
20260508100946 3 305 0.0 0.0 0.00 0.00 0.00 88 1010.8
20260508100846 3 305 0.0 0.0 0.00 0.00 0.00 88 1010.8
20260508100744 3 305 0.0 0.0 0.00 0.00 0.00 88 1010.8
20260508100727 4 305 0.0 0.0 0.00 0.00 0.00 88 1010.8
20260508100645 4 305 0.0 0.0 0.00 0.00 0.00 88 1010.7
20260508100545 4 305 0.0 0.0 0.00 0.00 0.00 88 1010.7
20260508100444 4 305 0.0 0.0 0.00 0.00 0.00 88 1010.7
20260508100344 4 305 0.0 0.0 0.00 0.00 0.00 88 1010.7
20260508100302 4 305 0.0 0.0 0.00 0.00 0.00 88 1010.7
20260508100250 4 305 0.0 0.0 0.00 0.00 0.00 88 1010.6
20260508100041 4 305 0.0 0.0 0.00 0.00 0.00 88 1010.6
20260508100018 4 305 0.0 0.0 0.00 0.00 0.00 88 1010.8
20260508095940 4 305 0.0 0.0 0.00 0.00 0.00 88 1010.6
20260508095839 4 305 0.0 0.0 0.00 0.00 0.00 88 1010.6
20260508095756 4 305 0.0 0.0 0.00 0.00 0.00 88 1010.5
20260508095744 4 305 0.0 0.0 0.00 0.00 0.00 88 1010.5
20260508095611 4 305 0.0 0.0 0.00 0.00 0.00 87 1010.6
20260508095607 4 305 0.0 0.0 0.00 0.00 0.00 87 1010.5
20260508095603 4 305 0.0 0.0 0.00 0.00 0.00 87 1010.5
20260508095558 4 305 0.0 0.0 0.00 0.00 0.00 87 1010.5
20260508095518 4 305 0.0 0.0 0.00 0.00 0.00 87 1010.8
20260508095330 4 305 0.0 0.0 0.00 0.00 0.00 87 1010.5
20260508095135 4 305 0.0 0.0 0.00 0.00 0.00 87 1010.5
20260508095047 4 305 0.0 0.0 0.00 0.00 0.00 87 1010.4
20260508095043 4 305 0.0 0.0 0.00 0.00 0.00 87 1010.5
20260508095018 4 305 0.0 0.0 0.00 0.00 0.00 87 1010.6
20260508094833 4 305 0.0 0.0 0.00 0.00 0.00 87 1010.4
20260508094722 4 305 0.0 0.0 0.00 0.00 0.00 87 1010.5
20260508094632 4 305 0.0 0.0 0.00 0.00 0.00 87 1010.4
20260508094531 5 305 0.0 0.0 0.00 0.00 0.00 87 1010.5
20260508094518 5 305 0.0 0.0 0.00 0.00 0.00 87 1010.6
20260508094431 5 305 0.0 0.0 0.00 0.00 0.00 87 1010.4
20260508094345 5 305 0.0 0.0 0.00 0.00 0.00 87 1010.5
20260508094340 5 305 0.0 0.0 0.00 0.00 0.00 87 1010.4
20260508094221 5 305 0.0 0.0 0.00 0.00 0.00 87 1010.5
20260508094131 5 305 0.0 0.0 0.00 0.00 0.00 86 1010.4
20260508094030 5 305 0.0 0.0 0.00 0.00 0.00 86 1010.5
20260508094019 5 305 0.0 0.0 0.00 0.00 0.00 86 1010.7
20260508093941 5 305 0.0 0.0 0.00 0.00 0.00 86 1010.5
20260508093929 5 305 0.0 0.0 0.00 0.00 0.00 86 1010.5
20260508093837 5 305 0.0 0.0 0.00 0.00 0.00 86 1010.5
20260508093828 5 305 0.0 0.0 0.00 0.00 0.00 86 1010.5
20260508093628 5 305 0.0 0.0 0.00 0.00 0.00 86 1010.6
20260508093610 5 305 0.0 0.0 0.00 0.00 0.00 86 1010.5
20260508093602 5 305 0.0 0.0 0.00 0.00 0.00 86 1010.6
20260508093557 5 305 0.0 0.0 0.00 0.00 0.00 86 1010.6
20260508093547 5 305 0.0 0.0 0.00 0.00 0.00 86 1010.6
20260508093518 5 305 0.0 0.0 0.00 0.00 0.00 86 1010.7
20260508093125 5 305 0.0 0.0 0.00 0.00 0.00 86 1010.6
20260508093047 5 305 0.0 0.0 0.00 0.00 0.00 86 1010.6
20260508093018 5 305 0.0 0.0 0.00 0.00 0.00 86 1010.7
20260508092924 5 305 0.0 0.0 0.00 0.00 0.00 86 1010.6
20260508092835 5 305 0.0 0.0 0.00 0.00 0.00 85 1010.6
20260508092826 5 305 0.0 0.0 0.00 0.00 0.00 85 1010.6
20260508092622 5 305 0.0 0.0 0.00 0.00 0.00 85 1010.6
20260508092535 5 0 0.0 0.0 0.00 0.00 0.00 85 1010.6
20260508092531 5 302 0.0 0.0 0.00 0.00 0.00 85 1010.6
20260508092518 5 360 0.0 0.0 0.00 0.00 0.00 85 1010.7
20260508092321 5 0 0.0 0.0 0.00 0.00 0.00 85 1010.6
20260508092221 5 0 0.0 0.0 0.00 0.00 0.00 85 1010.5
20260508092120 5 0 0.0 0.0 0.00 0.00 0.00 85 1010.5
20260508092019 5 0 0.0 0.0 0.00 0.00 0.00 84 1010.6
20260508091920 5 0 0.0 0.0 0.00 0.00 0.00 85 1010.6
20260508091819 5 0 0.0 0.0 0.00 0.00 0.00 85 1010.6
20260508091720 5 0 0.0 0.0 0.00 0.00 0.00 85 1010.5
20260508091619 5 0 0.0 0.0 0.00 0.00 0.00 84 1010.5
20260508091520 5 0 0.0 0.0 0.00 0.00 0.00 85 1010.5
20260508091518 6 360 0.0 0.0 0.00 0.00 0.00 85 1010.7
20260508091419 6 0 0.0 0.0 0.00 0.00 0.00 85 1010.5
20260508091319 6 0 0.0 0.0 0.00 0.00 0.00 84 1010.6
20260508091219 6 0 0.0 0.0 0.00 0.00 0.00 84 1010.5
20260508091118 6 0 0.0 0.0 0.00 0.00 0.00 84 1010.5
20260508091018 6 360 0.0 0.0 0.00 0.00 0.00 84 1010.7
20260508090917 6 0 0.0 0.0 0.00 0.00 0.00 84 1010.5
20260508090817 6 0 0.0 0.0 0.00 0.00 0.00 84 1010.5
20260508090740 6 0 0.0 0.0 0.00 0.00 0.00 84 1010.5
20260508090625 6 0 0.0 0.0 0.00 0.00 0.00 84 1010.5
20260508090518 6 360 0.0 0.0 0.00 0.00 0.00 83 1010.7
20260508090427 6 0 0.0 0.0 0.00 0.00 0.00 83 1010.5
20260508090423 6 0 0.0 0.0 0.00 0.00 0.00 83 1010.5
20260508090214 6 0 0.0 0.0 0.00 0.00 0.00 83 1010.5
20260508090147 6 0 0.0 0.0 0.00 0.00 0.00 83 1010.4
20260508090141 6 0 0.0 0.0 0.00 0.00 0.00 83 1010.4
20260508090028 6 0 0.0 0.0 0.00 0.00 0.00 83 1010.4
20260508090018 6 360 0.0 0.0 0.00 0.00 0.00 83 1010.6
20260508085709 6 0 0.0 0.0 0.00 0.00 0.00 83 1010.4
20260508085609 6 0 0.0 0.0 0.00 0.00 0.00 82 1010.4
20260508085518 6 360 0.0 0.0 0.00 0.00 0.00 82 1010.5
20260508085507 6 0 0.0 0.0 0.00 0.00 0.00 82 1010.3
20260508085407 6 0 0.0 0.0 0.00 0.00 0.00 82 1010.4
20260508085308 6 0 0.0 0.0 0.00 0.00 0.00 82 1010.4
20260508085212 6 0 0.0 0.0 0.00 0.00 0.00 82 1010.4
20260508085207 6 0 0.0 0.0 0.00 0.00 0.00 82 1010.3
20260508085119 6 0 0.0 0.0 0.00 0.00 0.00 82 1010.4
20260508085115 6 0 0.0 0.0 0.00 0.00 0.00 82 1010.4
20260508085033 6 360 0.0 0.0 0.00 0.00 0.00 82 1010.6
20260508084904 6 0 0.0 0.0 0.00 0.00 0.00 81 1010.3
20260508084805 6 0 0.0 0.0 0.00 0.00 0.00 81 1010.4
20260508084746 6 0 0.0 0.0 0.00 0.00 0.00 81 1010.3
20260508084741 6 0 0.0 0.0 0.00 0.00 0.00 81 1010.4
20260508084735 6 0 0.0 0.0 0.00 0.00 0.00 81 1010.3
20260508084622 6 0 0.0 0.0 0.00 0.00 0.00 81 1010.3
20260508084518 6 360 0.0 0.0 0.00 0.00 0.00 81 1010.5
20260508084303 7 0 0.0 0.0 0.00 0.00 0.00 80 1010.3
20260508084212 7 0 0.0 0.0 0.00 0.00 0.00 80 1010.3
20260508084202 7 0 0.0 0.0 0.00 0.00 0.00 80 1010.3
20260508084102 7 0 0.0 0.0 0.00 0.00 0.00 80 1010.2
20260508084018 7 360 0.0 0.0 0.00 0.00 0.00 80 1010.4
20260508084001 7 0 0.0 0.0 0.00 0.00 0.00 79 1010.2
20260508083901 7 0 0.0 0.0 0.00 0.00 0.00 79 1010.2
20260508083800 7 0 0.0 0.0 0.00 0.00 0.00 79 1010.2
20260508083711 7 0 0.0 0.0 0.00 0.00 0.00 79 1010.1
20260508083658 7 0 0.0 0.0 0.00 0.00 0.00 79 1010.1
20260508083558 7 0 0.0 0.0 0.00 0.00 0.00 79 1010.2
20260508083518 7 360 0.0 0.0 0.00 0.00 0.00 79 1010.3
20260508083458 7 0 0.0 0.0 0.00 0.00 0.00 79 1010.1
20260508083357 7 0 0.0 0.0 0.00 0.00 0.00 79 1010.1
20260508083257 7 0 0.0 0.0 0.00 0.00 0.00 78 1010.2
20260508083211 7 0 0.0 0.0 0.00 0.00 0.00 78 1010.2
20260508083157 7 0 0.0 0.0 0.00 0.00 0.00 78 1010.1
20260508083056 7 0 0.0 0.0 0.00 0.00 0.00 78 1010.1
20260508083020 7 360 0.0 0.0 0.00 0.00 0.00 78 1010.3
20260508082956 7 0 0.0 0.0 0.00 0.00 0.00 78 1010.1
20260508082933 7 0 0.0 0.0 0.00 0.00 0.00 78 1010.0
20260508082855 7 0 0.0 0.0 0.00 0.00 0.00 78 1010.0
20260508082818 7 0 0.0 0.0 0.00 0.00 0.00 78 1010.0
20260508082653 7 0 0.0 0.0 0.00 0.00 0.00 78 1010.0
20260508082605 7 0 0.0 0.0 0.00 0.00 0.00 78 1010.0
20260508082601 7 0 0.0 0.0 0.00 0.00 0.00 78 1010.0
20260508082518 7 360 0.0 0.0 0.00 0.00 0.00 78 1010.2
20260508082351 7 0 0.0 0.0 0.00 0.00 0.00 77 1009.9
20260508082324 7 0 0.0 0.0 0.00 0.00 0.00 77 1009.9
20260508082320 7 0 0.0 0.0 0.00 0.00 0.00 77 1009.9
20260508082306 7 0 0.0 0.0 0.00 0.00 0.00 77 1009.9
20260508082018 7 360 0.0 0.0 0.00 0.00 0.00 77 1010.1
20260508082012 7 0 0.0 0.0 0.00 0.00 0.00 77 1009.9
20260508081859 7 0 0.0 0.0 0.00 0.00 0.00 77 1009.8
20260508081708 7 0 0.0 0.0 0.00 0.00 0.00 77 1009.8
20260508081648 7 0 0.0 0.0 0.00 0.00 0.00 77 1009.8
20260508081547 7 0 0.0 0.0 0.00 0.00 0.00 77 1009.8
20260508081518 7 360 0.0 0.0 0.00 0.00 0.00 77 1010.0
20260508081502 7 0 0.0 0.0 0.00 0.00 0.00 77 1009.8
20260508081458 7 0 0.0 0.0 0.00 0.00 0.00 77 1009.8
20260508081247 7 0 0.0 0.0 0.00 0.00 0.00 77 1009.8
20260508081209 7 0 0.0 0.0 0.00 0.00 0.00 77 1009.7
20260508081147 7 0 0.0 0.0 0.00 0.00 0.00 77 1009.7
20260508081046 8 0 0.0 0.0 0.00 0.00 0.00 77 1009.8
20260508081018 8 360 0.0 0.0 0.00 0.00 0.00 77 1009.9
20260508080946 8 0 0.0 0.0 0.00 0.00 0.00 77 1009.8
20260508080846 8 0 0.0 0.0 0.00 0.00 0.00 76 1009.8
20260508080745 8 0 0.0 0.0 0.00 0.00 0.00 76 1009.8
20260508080707 8 0 0.0 0.0 0.00 0.00 0.00 76 1009.8
20260508080645 8 0 0.0 0.0 0.00 0.00 0.00 76 1009.8
20260508080558 8 0 0.0 0.0 0.00 0.00 0.00 76 1009.7
20260508080554 8 0 0.0 0.0 0.00 0.00 0.00 76 1009.7
20260508080518 8 360 0.0 0.0 0.00 0.00 0.00 76 1009.8
20260508080357 8 0 0.0 0.0 0.00 0.00 0.00 76 1009.7
20260508080353 8 0 0.0 0.0 0.00 0.00 0.00 76 1009.7
20260508080208 8 0 0.0 0.0 0.00 0.00 0.00 75 1009.7
20260508080144 8 0 0.0 0.0 0.00 0.00 0.00 75 1009.7
20260508080100 8 0 0.0 0.0 0.00 0.00 0.00 75 1009.7
20260508080051 8 0 0.0 0.0 0.00 0.00 0.00 75 1009.7
20260508080018 8 360 0.0 0.0 0.00 0.00 0.00 75 1009.8
20260508075841 8 0 0.0 0.0 0.00 0.00 0.00 75 1009.6
20260508075741 8 0 0.0 0.0 0.00 0.00 0.00 74 1009.6
20260508075707 8 0 0.0 0.0 0.00 0.00 0.00 74 1009.6
20260508075640 8 0 0.0 0.0 0.00 0.00 0.00 74 1009.6
20260508075540 8 0 0.0 0.0 0.00 0.00 0.00 74 1009.6
20260508075518 8 360 0.0 0.0 0.00 0.00 0.00 74 1009.7
20260508075452 8 0 0.0 0.0 0.00 0.00 0.00 73 1009.6
20260508075448 8 0 0.0 0.0 0.00 0.00 0.00 74 1009.6
20260508075238 8 0 0.0 0.0 0.00 0.00 0.00 73 1009.5
20260508075205 8 0 0.0 0.0 0.00 0.00 0.00 73 1009.6
20260508075150 8 0 0.0 0.0 0.00 0.00 0.00 73 1009.5
20260508075146 8 0 0.0 0.0 0.00 0.00 0.00 73 1009.6
20260508075019 8 360 0.0 0.0 0.00 0.00 0.00 73 1009.6
20260508074936 8 0 0.0 0.0 0.00 0.00 0.00 73 1009.5
20260508074836 8 0 0.0 0.0 0.00 0.00 0.00 73 1009.5
20260508074735 8 0 0.0 0.0 0.00 0.00 0.00 72 1009.5
20260508074704 8 0 0.0 0.0 0.00 0.00 0.00 72 1009.5
20260508074635 8 0 0.0 0.0 0.00 0.00 0.00 72 1009.5
20260508074548 9 0 0.0 0.0 0.00 0.00 0.00 72 1009.5
20260508074544 9 0 0.0 0.0 0.00 0.00 0.00 72 1009.5
20260508074518 9 360 0.0 0.0 0.00 0.00 0.00 72 1009.6
20260508074334 9 0 0.0 0.0 0.00 0.00 0.00 72 1009.4
20260508074234 9 0 0.0 0.0 0.00 0.00 0.00 72 1009.4
20260508074204 9 0 0.0 0.0 0.00 0.00 0.00 72 1009.4
20260508074146 9 0 0.0 0.0 0.00 0.00 0.00 72 1009.4
20260508074142 9 0 0.0 0.0 0.00 0.00 0.00 72 1009.4
20260508074018 9 360 0.0 0.0 0.00 0.00 0.00 72 1009.5
20260508073933 9 0 0.0 0.0 0.00 0.00 0.00 72 1009.4
20260508073833 9 0 0.0 0.0 0.00 0.00 0.00 71 1009.4
20260508073704 9 0 0.0 0.0 0.00 0.00 0.00 71 1009.4
20260508073632 9 0 0.0 0.0 0.00 0.00 0.00 71 1009.4
20260508073544 9 0 0.0 0.0 0.00 0.00 0.00 71 1009.4
20260508073540 9 0 0.0 0.0 0.00 0.00 0.00 71 1009.4
20260508073520 9 360 0.0 0.0 0.00 0.00 0.00 71 1009.5
20260508073330 9 0 0.0 0.0 0.00 0.00 0.00 71 1009.4
20260508073203 9 0 0.0 0.0 0.00 0.00 0.00 71 1009.3
20260508073130 9 0 0.0 0.0 0.00 0.00 0.00 70 1009.3
20260508073029 9 0 0.0 0.0 0.00 0.00 0.00 70 1009.3
20260508073018 9 360 0.0 0.0 0.00 0.00 0.00 70 1009.4
20260508072928 9 0 0.0 0.0 0.00 0.00 0.00 70 1009.3
20260508072827 9 0 0.0 0.0 0.00 0.00 0.00 70 1009.2
20260508072703 9 0 0.0 0.0 0.00 0.00 0.00 70 1009.2
20260508072626 9 0 0.0 0.0 0.00 0.00 0.00 70 1009.2
20260508072527 9 0 0.0 0.0 0.00 0.00 0.00 70 1009.2
20260508072519 10 360 0.0 0.0 0.00 0.03 0.00 70 1009.3
20260508072426 10 0 0.0 0.0 0.00 0.00 0.00 70 1009.2
20260508072326 10 0 0.0 0.0 0.00 0.00 0.00 70 1009.2
20260508072225 10 0 0.0 4.8 0.00 0.00 0.00 70 1009.2
20260508072201 10 0 0.0 4.8 0.00 0.00 0.00 69 1009.2
20260508072125 10 0 0.0 4.8 0.00 0.00 0.00 69 1009.2
20260508072024 10 0 0.0 4.8 0.00 0.00 0.00 69 1009.2
20260508072019 10 360 0.0 4.8 0.00 0.05 0.00 69 1009.3
20260508071946 10 0 0.0 4.8 0.00 0.00 0.00 69 1009.2
20260508071832 10 0 0.0 4.8 0.00 0.00 0.00 69 1009.2
20260508071700 10 0 0.0 4.8 0.00 0.00 0.00 69 1009.2
20260508071623 10 0 0.0 4.8 0.00 0.00 0.00 69 1009.2
20260508071523 10 0 0.0 14.5 0.00 0.00 0.00 69 1009.1
20260508071519 10 360 0.0 14.5 0.00 0.08 0.00 69 1009.2
20260508071422 10 0 0.0 14.5 0.00 0.00 0.00 69 1009.1
20260508071322 10 0 0.0 14.5 0.00 0.00 0.00 69 1009.0
20260508071236 10 0 0.0 14.5 0.00 0.00 0.00 69 1009.0
20260508071228 10 0 0.0 14.5 0.00 0.00 0.00 69 1009.0
20260508071021 10 0 0.0 14.5 0.00 0.00 0.00 70 1009.0
20260508071018 10 360 0.0 14.5 0.00 0.13 0.00 70 1009.1
20260508070920 10 0 0.0 14.5 0.00 0.00 0.00 69 1009.0
20260508070831 10 0 0.0 14.5 0.00 0.00 0.00 69 1008.9
20260508070826 10 0 0.0 14.5 0.00 0.00 0.00 69 1009.0
20260508070659 10 0 0.0 14.5 0.00 0.00 0.00 69 1009.0
20260508070618 10 0 0.0 14.5 0.00 0.00 0.00 69 1009.0
20260508070518 10 0 0.0 8.0 0.00 0.00 0.00 69 1008.9
20260508070430 10 0 0.0 9.7 0.00 0.00 0.00 69 1009.0
20260508070425 10 0 0.0 9.7 0.00 0.00 0.00 69 1009.0
20260508070216 10 0 0.0 9.7 0.00 0.00 0.00 69 1009.0
20260508070158 10 0 0.0 9.7 0.00 0.00 0.00 69 1008.9
20260508070116 10 0 0.0 9.7 0.00 0.00 0.00 69 1008.9
20260508070110 10 0 0.0 9.7 0.00 0.00 0.00 70 1008.9
20260508070105 10 0 0.0 9.7 0.00 0.00 0.00 70 1008.9
20260508070059 10 0 0.0 9.7 0.00 0.00 0.00 69 1008.9
20260508070018 10 360 0.0 9.7 0.00 0.13 0.00 69 1009.0
20260508065945 10 0 0.0 9.7 0.00 0.00 0.00 70 1008.9
20260508065719 10 0 0.0 9.7 0.00 0.00 0.00 70 1008.9
20260508065518 10 360 0.0 9.7 0.00 0.15 0.00 70 1008.9
20260508065511 10 0 0.0 9.7 0.00 0.00 0.00 70 1008.8
20260508065411 10 0 0.0 0.0 0.00 0.00 0.00 70 1008.8
20260508065310 10 0 0.0 0.0 0.00 0.00 0.00 71 1008.8
20260508065210 10 0 0.0 0.0 0.00 0.00 0.00 70 1008.8
20260508065156 10 0 0.0 0.0 0.00 0.00 0.00 70 1008.8
20260508065110 10 0 0.0 0.0 0.00 0.00 0.00 71 1008.9
20260508065019 10 360 0.0 0.0 0.00 0.18 0.00 71 1008.9
20260508065008 10 0 0.0 0.0 0.00 0.00 0.00 71 1008.8
20260508064908 10 0 0.0 0.0 0.00 0.00 0.00 71 1008.8
20260508064807 10 0 0.0 0.0 0.00 0.00 0.00 71 1008.8
20260508064707 10 0 0.0 0.0 0.00 0.00 0.00 71 1008.8
20260508064653 10 0 0.0 0.0 0.00 0.00 0.00 71 1008.8
20260508064607 9 0 0.0 0.0 0.00 0.00 0.00 71 1008.7
20260508064518 9 360 0.0 0.0 0.00 0.20 0.00 72 1008.8
20260508064507 9 0 0.0 0.0 0.00 0.00 0.00 72 1008.7
20260508064407 9 0 0.0 1.6 0.00 0.00 0.00 72 1008.7
20260508064306 9 0 0.0 1.6 0.00 0.00 0.00 72 1008.7
20260508064206 9 0 0.0 1.6 0.00 0.00 0.00 73 1008.6
20260508064151 9 0 0.0 1.6 0.00 0.00 0.00 73 1008.6
20260508064106 9 0 0.0 1.6 0.00 0.00 0.00 73 1008.6
20260508064018 9 360 0.0 1.6 0.00 0.20 0.00 73 1008.6
20260508064005 9 0 0.0 1.6 0.00 0.00 0.00 73 1008.5
20260508063905 9 0 0.0 1.6 0.00 0.00 0.00 74 1008.6
20260508063805 9 0 0.0 1.6 0.00 0.00 0.00 75 1008.5
20260508063746 9 0 0.0 1.6 0.00 0.00 0.00 75 1008.5
20260508063742 8 0 0.0 1.6 0.00 0.00 0.00 75 1008.6
20260508063737 9 0 0.0 1.6 0.00 0.00 0.00 74 1008.6
20260508063728 9 0 0.0 1.6 0.00 0.00 0.00 74 1008.6
20260508063518 9 360 0.0 1.6 0.00 0.20 0.00 75 1008.6
20260508063303 8 0 0.0 1.6 0.00 0.00 0.00 75 1008.5
20260508063230 8 0 0.0 0.0 0.00 0.00 0.00 76 1008.5
20260508063222 8 0 0.0 0.0 0.00 0.00 0.00 77 1008.5
20260508063110 8 0 0.0 0.0 0.00 0.00 0.00 77 1008.5
20260508063019 8 360 0.0 0.0 0.00 0.20 0.00 77 1008.6
20260508062901 8 0 0.0 0.0 0.00 0.00 0.00 78 1008.5
20260508062801 8 0 0.0 0.0 0.00 0.00 0.00 78 1008.5
20260508062719 8 0 0.0 0.0 0.00 0.00 0.00 79 1008.4
20260508062707 8 0 0.0 0.0 0.00 0.00 0.00 79 1008.4
20260508062518 8 360 0.0 0.0 0.00 0.23 0.00 78 1008.5
20260508062459 8 0 0.0 0.0 0.00 0.00 0.00 79 1008.4
20260508062417 8 0 0.0 0.0 0.00 0.00 0.00 79 1008.5
20260508062412 8 0 0.0 0.0 0.00 0.00 0.00 79 1008.4
20260508062403 8 0 0.0 0.0 0.00 0.00 0.00 79 1008.4
20260508062057 8 0 0.0 0.0 0.00 0.00 0.00 79 1008.4
20260508062019 8 360 0.0 0.0 0.00 0.23 0.00 79 1008.5
20260508062016 8 0 0.0 0.0 0.00 0.00 0.00 79 1008.4
20260508061856 8 0 0.0 0.0 0.00 0.00 0.00 79 1008.4
20260508061802 8 0 0.0 0.0 0.00 0.00 0.00 79 1008.4
20260508061753 8 0 0.0 0.0 0.00 0.00 0.00 79 1008.3
20260508061556 8 0 0.0 0.0 0.00 0.00 0.00 79 1008.4
20260508061518 8 360 0.0 0.0 0.00 0.23 0.00 79 1008.5
20260508061456 8 0 0.0 0.0 0.00 0.00 0.00 79 1008.4
20260508061408 8 0 0.0 0.0 0.00 0.00 0.00 80 1008.3
20260508061404 8 0 0.0 0.0 0.00 0.00 0.00 80 1008.3
20260508061143 8 0 0.0 0.0 0.00 0.00 0.00 80 1008.2
20260508061107 8 0 0.0 0.0 0.00 0.00 0.00 80 1008.2
20260508061103 8 0 0.0 0.0 0.00 0.00 0.00 80 1008.2
20260508061018 8 360 0.0 0.0 0.00 0.23 0.00 80 1008.3
20260508060906 8 0 0.0 0.0 0.00 0.00 0.00 80 1008.3
20260508060902 8 0 0.0 0.0 0.00 0.00 0.00 80 1008.3
20260508060643 8 0 0.0 4.8 0.00 0.00 0.00 80 1008.3
20260508060551 8 0 0.0 4.8 0.00 0.00 0.00 80 1008.3
20260508060518 8 360 0.0 4.8 0.00 0.28 0.00 81 1008.4
20260508060451 8 0 0.0 4.8 0.00 0.00 0.00 81 1008.3
20260508060350 8 0 0.0 4.8 0.00 0.00 0.00 81 1008.3
20260508060250 8 0 0.0 4.8 0.00 0.00 0.00 81 1008.2
20260508060142 8 0 0.0 4.8 0.00 0.00 0.00 81 1008.2
20260508060050 8 0 0.0 4.8 0.00 0.00 0.00 81 1008.2
20260508060019 8 360 0.0 4.8 0.00 0.30 0.00 81 1008.4
20260508055947 8 0 0.0 4.8 0.00 0.00 0.00 81 1008.3
20260508055908 8 0 0.0 0.0 0.00 0.00 0.00 81 1008.0
20260508055847 8 0 0.0 4.8 0.00 0.00 0.00 82 1008.4
20260508055758 8 0 0.0 4.8 0.00 0.00 0.00 82 1008.2
20260508055748 8 0 0.0 0.0 0.00 0.00 0.00 81 1008.0
20260508055543 8 0 0.0 0.0 0.00 0.00 0.00 81 1007.8
20260508055518 8 360 0.0 0.0 0.00 0.36 0.00 81 1007.8
20260508055444 8 0 0.0 0.0 0.00 0.00 0.00 81 1007.7
20260508055415 8 0 0.0 0.0 0.00 0.00 0.00 81 1007.6
20260508055410 8 0 0.0 0.0 0.00 0.00 0.00 80 1007.5
20260508055405 8 0 0.0 0.0 0.00 0.00 0.00 81 1007.7
20260508055143 8 0 0.0 0.0 0.00 0.00 0.00 80 1007.5
20260508055048 8 360 0.0 0.0 0.00 0.38 0.00 80 1007.6
20260508055042 8 0 0.0 0.0 0.00 0.00 0.00 80 1007.5
20260508054942 8 0 0.0 0.0 0.00 0.00 0.00 81 1007.5
20260508054842 8 0 0.0 0.0 0.00 0.00 0.00 81 1007.5
20260508054741 8 0 0.0 0.0 0.00 0.00 0.00 81 1007.6
20260508054641 8 0 0.0 0.0 0.00 0.00 0.00 81 1007.5
20260508054540 8 0 0.0 0.0 0.00 0.00 0.00 81 1007.4
20260508054518 8 360 0.0 0.0 0.00 0.38 0.00 81 1007.6
20260508054439 8 0 0.0 0.0 0.00 0.00 0.00 81 1007.5
20260508054339 8 0 0.0 0.0 0.00 0.00 0.00 80 1007.5
20260508054238 8 0 0.0 4.8 0.00 0.00 0.00 80 1007.5
20260508054139 8 0 0.0 4.8 0.00 0.00 0.00 81 1007.5
20260508054037 8 0 0.0 4.8 0.00 0.00 0.00 81 1007.5
20260508054018 8 360 0.0 4.8 0.00 0.41 0.00 81 1007.6
20260508053938 8 0 0.0 4.8 0.00 0.00 0.00 82 1007.5
20260508053837 8 0 0.0 4.8 0.00 0.00 0.00 82 1007.5
20260508053751 8 0 0.0 4.8 0.00 0.00 0.00 82 1007.5
20260508053742 8 0 0.0 4.8 0.00 0.00 0.00 82 1007.5
20260508053536 8 0 0.0 4.8 0.00 0.00 0.00 83 1007.4
20260508053518 8 360 0.0 4.8 0.00 0.51 0.00 82 1007.5
20260508053448 8 0 0.0 4.8 0.00 0.00 0.00 82 1007.4
20260508053444 8 0 0.0 4.8 0.00 0.00 0.00 82 1007.4
20260508053235 9 0 0.0 0.0 0.00 0.00 0.00 82 1007.5
20260508053134 9 0 0.0 0.0 0.00 0.00 0.00 82 1007.4
20260508053033 9 0 0.0 0.0 0.00 0.00 0.00 81 1007.4
20260508053019 9 360 0.0 0.0 0.00 0.53 0.00 81 1007.5
20260508052932 9 0 0.0 0.0 0.00 0.00 0.00 81 1007.4
20260508052832 9 0 0.0 0.0 0.00 0.00 0.00 81 1007.4
20260508052732 9 0 0.0 0.0 0.00 0.00 0.00 81 1007.3
20260508052630 9 0 0.0 0.0 0.00 0.00 0.00 81 1007.4
20260508052529 9 0 0.0 0.0 0.00 0.00 0.00 81 1007.4
20260508052518 9 360 0.0 0.0 0.00 0.53 0.00 81 1007.5
20260508052427 9 0 0.0 0.0 0.00 0.00 0.00 81 1007.4
20260508052327 9 0 0.0 0.0 0.00 0.00 0.00 81 1007.4
20260508052226 9 0 0.0 0.0 0.00 0.00 0.00 81 1007.4
20260508052126 9 0 0.0 0.0 0.00 0.00 0.00 81 1007.4
20260508052025 9 0 0.0 0.0 0.00 0.00 0.00 81 1007.4
20260508052019 9 360 0.0 0.0 0.00 0.58 0.00 81 1007.5
20260508051925 9 0 0.0 0.0 0.00 0.00 0.00 81 1007.4
20260508051824 9 0 0.0 0.0 0.00 0.00 0.00 81 1007.4
20260508051723 9 0 0.0 0.0 0.00 0.00 0.00 81 1007.4
20260508051623 9 0 0.0 0.0 0.00 0.00 0.00 81 1007.4
20260508051548 10 360 0.0 0.0 0.00 0.61 0.00 80 1007.5
20260508051522 9 0 0.0 0.0 0.00 0.00 0.00 80 1007.4
20260508051422 9 0 0.0 0.0 0.00 0.00 0.00 80 1007.4
20260508051322 9 0 0.0 0.0 0.00 0.00 0.00 80 1007.5
20260508051221 9 0 0.0 0.0 0.00 0.00 0.00 80 1007.4
20260508051121 9 0 0.0 0.0 0.00 0.00 0.00 80 1007.4
20260508051020 9 0 0.0 0.0 0.00 0.00 0.00 80 1007.4
20260508051018 10 360 0.0 0.0 0.00 0.66 0.00 80 1007.5
20260508050920 10 0 0.0 0.0 0.00 0.00 0.00 80 1007.4
20260508050833 10 0 0.0 0.0 0.00 0.00 0.00 80 1007.3
20260508050828 10 0 0.0 0.0 0.00 0.00 0.00 80 1007.3
20260508050638 10 0 0.0 0.0 0.00 0.00 0.00 81 1007.2
20260508050628 10 0 0.0 0.0 0.00 0.00 0.00 80 1007.3
20260508050519 10 360 0.0 0.0 0.00 0.66 0.00 81 1007.4
20260508050418 10 0 0.0 0.0 0.00 0.00 0.00 81 1007.3
20260508050340 10 0 0.0 0.0 0.00 0.00 0.00 81 1007.2
20260508050335 10 0 0.0 0.0 0.00 0.00 0.00 81 1007.2
20260508050118 10 0 0.0 0.0 0.00 0.00 0.00 81 1007.2
20260508050019 10 0 0.0 0.0 0.00 0.00 0.00 81 1007.2
20260508045918 10 0 0.0 0.0 0.00 0.00 0.00 81 1007.1
20260508045816 10 0 0.0 0.0 0.00 0.00 0.00 81 1007.1
20260508045716 10 0 0.0 0.0 0.00 0.00 0.00 81 1007.1
20260508045617 10 0 0.0 0.0 0.00 0.00 0.00 81 1007.1
20260508045603 10 360 0.0 0.0 0.00 0.69 0.00 81 1007.2
20260508045516 10 0 0.0 0.0 0.00 0.00 0.00 81 1007.1
20260508045416 10 0 0.0 0.0 0.00 0.00 0.00 81 1007.1
20260508045315 9 0 0.0 0.0 0.00 0.00 0.00 81 1007.1
20260508045214 9 0 0.0 0.0 0.00 0.00 0.00 81 1007.1
20260508045125 9 0 0.0 0.0 0.00 0.00 0.00 82 1007.1
20260508045121 9 0 0.0 0.0 0.00 0.00 0.00 81 1007.1
20260508045018 10 360 0.0 0.0 0.00 0.69 0.00 82 1007.2
20260508044927 9 0 0.0 0.0 0.00 0.00 0.00 82 1007.1
20260508044921 9 0 0.0 0.0 0.00 0.00 0.00 82 1007.1
20260508044711 9 0 0.0 0.0 0.00 0.00 0.00 82 1007.0
20260508044626 9 0 0.0 0.0 0.00 0.00 0.00 82 1007.0
20260508044611 9 0 0.0 0.0 0.00 0.00 0.00 82 1006.9
20260508044524 9 0 0.0 0.0 0.00 0.00 0.00 82 1006.9
20260508044520 9 360 0.0 0.0 0.00 0.69 0.00 82 1007.0
20260508044310 9 0 0.0 0.0 0.00 0.00 0.00 82 1007.0
20260508044209 9 0 0.0 0.0 0.00 0.00 0.00 82 1007.0
20260508044126 9 0 0.0 0.0 0.00 0.00 0.00 83 1007.0
20260508044108 9 0 0.0 0.0 0.00 0.00 0.00 83 1006.9
20260508044019 9 360 0.0 0.0 0.00 0.69 0.00 83 1007.0
20260508044008 9 0 0.0 0.0 0.00 0.00 0.00 83 1006.9
20260508043907 9 0 0.0 0.0 0.00 0.00 0.00 84 1006.9
20260508043807 9 0 0.0 0.0 0.00 0.00 0.00 84 1006.9
20260508043707 9 0 0.0 0.0 0.00 0.00 0.00 84 1006.9
20260508043626 9 0 0.0 0.0 0.00 0.00 0.00 84 1006.9
20260508043615 9 0 0.0 0.0 0.00 0.00 0.00 84 1006.8
20260508043611 9 0 0.0 0.0 0.00 0.00 0.00 84 1006.8
20260508043601 9 0 0.0 0.0 0.00 0.00 0.00 84 1006.8
20260508043518 9 360 0.0 0.0 0.00 0.69 0.00 84 1006.9
20260508043448 9 0 0.0 0.0 0.00 0.00 0.00 84 1006.8
20260508043335 9 0 0.0 0.0 0.00 0.00 0.00 84 1006.8
20260508043325 9 0 0.0 0.0 0.00 0.00 0.00 84 1006.8
20260508043019 9 360 0.0 0.0 0.00 0.69 0.00 85 1006.9
20260508042900 9 0 0.0 0.0 0.00 0.00 0.00 84 1006.8
20260508042758 9 0 0.0 0.0 0.00 0.00 0.00 84 1006.8
20260508042658 9 0 0.0 0.0 0.00 0.00 0.00 84 1006.7
20260508042627 9 0 0.0 0.0 0.00 0.00 0.00 84 1006.7
20260508042557 9 0 0.0 0.0 0.00 0.00 0.00 84 1006.7
20260508042518 9 360 0.0 0.0 0.00 0.69 0.00 84 1006.8
20260508042457 9 0 0.0 0.0 0.00 0.00 0.00 84 1006.7
20260508042355 9 0 0.0 0.0 0.00 0.00 0.00 84 1006.7
20260508042308 9 0 0.0 0.0 0.00 0.00 0.00 84 1006.7
20260508042306 9 0 0.0 0.0 0.00 0.00 0.00 84 1006.7
20260508042125 9 0 0.0 0.0 0.00 0.00 0.00 84 1006.7
20260508042054 9 0 0.0 0.0 0.00 0.00 0.00 84 1006.7
20260508042019 9 360 0.0 0.0 0.00 0.69 0.00 84 1006.8
20260508041953 9 0 0.0 0.0 0.00 0.00 0.00 84 1006.7
20260508041908 9 0 0.0 0.0 0.00 0.00 0.00 84 1006.7
20260508041903 9 0 0.0 0.0 0.00 0.00 0.00 84 1006.7
20260508041625 9 0 0.0 0.0 0.00 0.00 0.00 84 1006.7
20260508041553 9 0 0.0 0.0 0.00 0.00 0.00 84 1006.7
20260508041519 9 360 0.0 0.0 0.00 0.69 0.00 84 1006.8
20260508041452 9 0 0.0 0.0 0.00 0.00 0.00 84 1006.7
20260508041351 9 0 0.0 0.0 0.00 0.00 0.00 84 1006.7
20260508041318 9 0 0.0 0.0 0.00 0.00 0.00 84 1006.7
20260508041157 9 0 0.0 0.0 0.00 0.00 0.00 84 1006.7
20260508041019 9 360 0.0 0.0 0.00 0.69 0.00 84 1006.8
20260508040949 9 0 0.0 0.0 0.00 0.00 0.00 84 1006.7
20260508040847 9 0 0.0 0.0 0.00 0.00 0.00 84 1006.7
20260508040748 9 0 0.0 0.0 0.00 0.00 0.00 84 1006.7
20260508040626 9 0 0.0 0.0 0.00 0.00 0.00 84 1006.7
20260508040601 9 0 0.0 0.0 0.00 0.00 0.00 84 1006.7
20260508040556 9 0 0.0 0.0 0.00 0.00 0.00 84 1006.7
20260508040519 9 360 0.0 0.0 0.00 0.69 0.00 84 1006.8
20260508040345 9 0 0.0 0.0 0.00 0.00 0.00 84 1006.7
20260508040244 9 0 0.0 0.0 0.00 0.00 0.00 84 1006.7
20260508040123 9 0 0.0 0.0 0.00 0.00 0.00 84 1006.7
20260508040043 9 0 0.0 0.0 0.00 0.00 0.00 84 1006.6
20260508040019 9 360 0.0 0.0 0.00 0.69 0.00 84 1006.7
20260508035942 9 0 0.0 0.0 0.00 0.00 0.69 84 1006.6
20260508035841 9 0 0.0 0.0 0.00 0.00 0.69 84 1006.6
20260508035740 9 0 0.0 0.0 0.00 0.00 0.69 84 1006.7
20260508035621 9 0 0.0 0.0 0.00 0.00 0.69 84 1006.7
20260508035607 9 0 0.0 0.0 0.00 0.00 0.69 84 1006.7
20260508035603 9 0 0.0 0.0 0.00 0.00 0.69 84 1006.7
20260508035559 9 0 0.0 0.0 0.00 0.00 0.69 84 1006.7
20260508035555 9 0 0.0 0.0 0.00 0.00 0.69 84 1006.7
20260508035550 9 0 0.0 0.0 0.00 0.00 0.69 84 1006.7
20260508035540 9 0 0.0 0.0 0.00 0.00 0.69 84 1006.7
20260508035519 9 360 0.0 0.0 0.00 0.69 0.69 84 1006.8
20260508035206 9 0 0.0 0.0 0.00 0.00 0.69 84 1006.7
20260508035054 9 0 0.0 0.0 0.00 0.00 0.69 84 1006.8
20260508035019 9 360 0.0 0.0 0.00 0.69 0.69 84 1006.8
20260508034735 9 0 0.0 0.0 0.00 0.00 0.69 84 1006.7
20260508034619 9 0 0.0 0.0 0.00 0.00 0.69 84 1006.7
20260508034548 9 360 0.0 0.0 0.00 0.69 0.69 84 1006.8
20260508034535 9 0 0.0 0.0 0.00 0.00 0.69 84 1006.7
20260508034434 9 0 0.0 0.0 0.00 0.00 0.69 84 1006.7
20260508034334 9 0 0.0 0.0 0.00 0.00 0.69 84 1006.7
20260508034233 9 0 0.0 0.0 0.00 0.00 0.69 84 1006.7
20260508034117 9 0 0.0 0.0 0.00 0.00 0.69 84 1006.7
20260508034047 9 0 0.0 0.0 0.00 0.00 0.69 84 1006.7
20260508034041 9 0 0.0 0.0 0.00 0.00 0.69 84 1006.7
20260508034019 9 360 0.0 0.0 0.00 0.69 0.69 84 1006.8
20260508033846 8 0 0.0 0.0 0.00 0.00 0.69 84 1006.7
20260508033841 9 0 0.0 0.0 0.00 0.00 0.69 84 1006.8
20260508033832 9 0 0.0 0.0 0.00 0.00 0.69 84 1006.7
20260508033530 8 0 0.0 0.0 0.00 0.00 0.69 84 1006.7
20260508033519 8 360 0.0 0.0 0.00 0.69 0.69 84 1006.9
20260508033430 8 0 0.0 0.0 0.00 0.00 0.69 84 1006.8
20260508033344 8 0 0.0 0.0 0.00 0.00 0.69 83 1006.7
20260508033338 8 0 0.0 0.0 0.00 0.00 0.69 84 1006.7
20260508033116 8 0 0.0 0.0 0.00 0.00 0.69 83 1006.6
20260508033029 8 0 0.0 0.0 0.00 0.00 0.69 83 1006.6
20260508033018 8 360 0.0 0.0 0.00 0.69 0.69 83 1006.7
20260508032946 8 0 0.0 0.0 0.00 0.00 0.69 83 1006.6
20260508032942 8 0 0.0 0.0 0.00 0.00 0.69 83 1006.5
20260508032937 8 0 0.0 0.0 0.00 0.00 0.69 83 1006.6
20260508032729 8 0 0.0 0.0 0.00 0.00 0.69 83 1006.6
20260508032720 8 0 0.0 0.0 0.00 0.00 0.69 83 1006.6
20260508032525 8 0 0.0 0.0 0.00 0.00 0.69 83 1006.5
20260508032518 8 360 0.0 0.0 0.00 0.69 0.69 83 1006.6
20260508032425 8 0 0.0 0.0 0.00 0.00 0.69 83 1006.5
20260508032340 8 0 0.0 0.0 0.00 0.00 0.69 83 1006.6
20260508032335 8 0 0.0 0.0 0.00 0.00 0.69 83 1006.6
20260508032124 8 0 0.0 0.0 0.00 0.00 0.69 82 1006.6
20260508032112 8 0 0.0 0.0 0.00 0.00 0.69 82 1006.5
20260508032024 8 0 0.0 0.0 0.00 0.00 0.69 82 1006.5
20260508032019 8 360 0.0 0.0 0.00 0.69 0.69 82 1006.6
20260508031924 8 0 0.0 0.0 0.00 0.00 0.69 82 1006.5
20260508031824 8 0 0.0 0.0 0.00 0.00 0.69 82 1006.5
20260508031723 8 0 0.0 0.0 0.00 0.00 0.69 82 1006.6
20260508031622 8 0 0.0 0.0 0.00 0.00 0.69 82 1006.5
20260508031612 8 0 0.0 0.0 0.00 0.00 0.69 81 1006.6
20260508031522 8 0 0.0 0.0 0.00 0.00 0.69 81 1006.6
20260508031519 8 360 0.0 0.0 0.00 0.69 0.69 81 1006.7
20260508031421 8 0 0.0 0.0 0.00 0.00 0.69 81 1006.6
20260508031320 8 0 0.0 0.0 0.00 0.00 0.69 81 1006.5
20260508031218 8 0 0.0 0.0 0.00 0.00 0.69 81 1006.6
20260508031119 8 0 0.0 0.0 0.00 0.00 0.69 81 1006.6
20260508031112 8 0 0.0 0.0 0.00 0.00 0.69 81 1006.5
20260508031048 8 360 0.0 0.0 0.00 0.69 0.69 81 1006.7
20260508031030 8 0 0.0 0.0 0.00 0.00 0.69 81 1006.6
20260508031025 8 0 0.0 0.0 0.00 0.00 0.69 81 1006.5
20260508030815 8 0 0.0 0.0 0.00 0.00 0.69 81 1006.5
20260508030715 8 0 0.0 0.0 0.00 0.00 0.69 81 1006.6
20260508030612 8 0 0.0 0.0 0.00 0.00 0.69 81 1006.6
20260508030529 8 0 0.0 0.0 0.00 0.00 0.69 82 1006.5
20260508030524 8 0 0.0 0.0 0.00 0.00 0.69 81 1006.5
20260508030519 8 360 0.0 0.0 0.00 0.69 0.69 81 1006.6
20260508030314 8 0 0.0 0.0 0.00 0.00 0.69 82 1006.5
20260508030214 8 0 0.0 0.0 0.00 0.00 0.69 82 1006.6
20260508030115 8 0 0.0 0.0 0.00 0.00 0.69 82 1006.5
20260508030019 8 360 0.0 0.0 0.00 0.69 0.69 82 1006.6
20260508030013 8 0 0.0 0.0 0.00 0.00 0.69 82 1006.5
20260508025911 8 0 0.0 0.0 0.00 0.00 0.69 82 1006.6
20260508025811 8 0 0.0 0.0 0.00 0.00 0.69 82 1006.5
20260508025711 8 0 0.0 0.0 0.00 0.00 0.69 82 1006.5
20260508025632 8 0 0.0 0.0 0.00 0.00 0.69 82 1006.5
20260508025549 8 360 0.0 0.0 0.00 0.69 0.69 82 1006.7
20260508025518 8 0 0.0 0.0 0.00 0.00 0.69 82 1006.6
20260508025323 9 0 0.0 0.0 0.00 0.00 0.69 82 1006.6
20260508025318 8 0 0.0 0.0 0.00 0.00 0.69 82 1006.6
20260508025108 9 0 0.0 0.0 0.00 0.00 0.69 82 1006.6
20260508025021 9 0 0.0 0.0 0.00 0.00 0.69 82 1006.6
20260508025019 9 360 0.0 0.0 0.00 0.69 0.69 82 1006.6
20260508025016 9 0 0.0 0.0 0.00 0.00 0.69 82 1006.5
20260508024822 9 0 0.0 0.0 0.00 0.00 0.69 80 1006.6
20260508024816 9 0 0.0 0.0 0.00 0.00 0.69 81 1006.6
20260508024606 9 0 0.0 0.0 0.00 0.00 0.69 80 1006.6
20260508024519 9 360 0.0 0.0 0.00 0.69 0.69 80 1006.7
20260508024505 9 0 0.0 0.0 0.00 0.00 0.69 80 1006.6
20260508024405 9 0 0.0 0.0 0.00 0.00 0.69 80 1006.5
20260508024304 9 0 0.0 0.0 0.00 0.00 0.69 80 1006.6
20260508024205 9 0 0.0 0.0 0.00 0.00 0.69 80 1006.6
20260508024105 9 0 0.0 0.0 0.00 0.00 0.69 80 1006.5
20260508024018 9 0 0.0 0.0 0.00 0.00 0.69 80 1006.6
20260508024013 9 0 0.0 0.0 0.00 0.00 0.69 80 1006.6
20260508023840 9 0 0.0 0.0 0.00 0.00 0.69 80 1006.6
20260508023836 9 0 0.0 0.0 0.00 0.00 0.69 80 1006.5
20260508023829 9 0 0.0 0.0 0.00 0.00 0.69 80 1006.6
20260508023603 9 0 0.0 0.0 0.00 0.00 0.69 80 1006.6
20260508023520 9 360 0.0 0.0 0.00 0.71 0.69 80 1006.7
20260508023502 9 0 0.0 0.0 0.00 0.00 0.69 80 1006.6
20260508023446 9 0 0.0 0.0 0.00 0.00 0.69 79 1006.5
20260508023439 9 0 0.0 0.0 0.00 0.00 0.69 80 1006.5
20260508023326 9 0 0.0 0.0 0.00 0.00 0.69 79 1006.5
20260508023209 9 0 0.0 0.0 0.00 0.00 0.69 79 1006.5
20260508023018 9 360 0.0 0.0 0.00 0.71 0.69 79 1006.6
20260508023001 9 0 0.0 0.0 0.00 0.00 0.69 79 1006.5
20260508022913 9 0 0.0 0.0 0.00 0.00 0.69 79 1006.5
20260508022908 9 0 0.0 0.0 0.00 0.00 0.69 79 1006.5
20260508022658 9 0 0.0 0.0 0.00 0.00 0.69 79 1006.5
20260508022612 9 0 0.0 0.0 0.00 0.00 0.69 79 1006.5
20260508022558 9 0 0.0 0.0 0.00 0.00 0.69 79 1006.5
20260508022534 9 360 0.0 0.0 0.00 0.71 0.69 79 1006.6
20260508022457 9 0 0.0 0.0 0.00 0.00 0.69 79 1006.5
20260508022357 9 0 0.0 0.0 0.00 0.00 0.69 79 1006.5
20260508022331 9 0 0.0 0.0 0.00 0.00 0.69 78 1006.5
20260508022326 9 0 0.0 0.0 0.00 0.00 0.69 78 1006.5
20260508022320 9 0 0.0 0.0 0.00 0.00 0.69 78 1006.5
20260508022204 9 0 0.0 0.0 0.00 0.00 0.69 78 1006.5
20260508022018 9 360 0.0 0.0 0.00 0.71 0.69 78 1006.7
20260508021958 9 0 0.0 0.0 0.00 0.00 0.69 78 1006.6
20260508021857 9 0 0.0 0.0 0.00 0.00 0.69 77 1006.5
20260508021757 9 0 0.0 0.0 0.00 0.00 0.69 77 1006.6
20260508021657 9 0 0.0 0.0 0.00 0.00 0.69 77 1006.5
20260508021609 9 0 0.0 0.0 0.00 0.00 0.69 77 1006.6
20260508021556 9 0 0.0 0.0 0.00 0.00 0.69 77 1006.6
20260508021519 9 360 0.0 0.0 0.00 0.71 0.69 77 1006.6
20260508021456 9 0 0.0 0.0 0.00 0.00 0.69 77 1006.5
20260508021355 9 0 0.0 0.0 0.00 0.00 0.69 76 1006.6
20260508021254 9 0 0.0 0.0 0.00 0.00 0.69 77 1006.5
20260508021154 9 0 0.0 0.0 0.00 0.00 0.69 77 1006.5
20260508021111 9 0 0.0 0.0 0.00 0.00 0.69 77 1006.5
20260508021106 9 0 0.0 0.0 0.00 0.00 0.69 77 1006.6
20260508021102 9 0 0.0 0.0 0.00 0.00 0.69 77 1006.5
20260508021049 9 360 0.0 0.0 0.00 0.71 0.69 77 1006.7
20260508020852 9 0 0.0 0.0 0.00 0.00 0.69 77 1006.5
20260508020752 9 0 0.0 0.0 0.00 0.00 0.69 77 1006.5
20260508020652 9 0 0.0 0.0 0.00 0.00 0.69 77 1006.5
20260508020607 9 0 0.0 0.0 0.00 0.00 0.69 77 1006.5
20260508020551 9 0 0.0 0.0 0.00 0.00 0.69 77 1006.5
20260508020548 9 360 0.0 0.0 0.00 0.71 0.69 76 1006.6
20260508020451 9 0 0.0 0.0 0.00 0.00 0.69 76 1006.5
20260508020437 9 0 0.0 0.0 0.00 0.00 0.69 74 1006.4
20260508020433 9 0 0.0 0.0 0.00 0.00 0.69 75 1006.5
20260508020429 9 0 0.0 0.0 0.00 0.00 0.69 74 1006.4
20260508020424 9 0 0.0 0.0 0.00 0.00 0.69 76 1006.6
20260508020415 9 0 0.0 0.0 0.00 0.00 0.69 75 1006.5
20260508020048 9 360 0.0 0.0 0.00 0.71 0.69 74 1006.5
20260508015949 9 0 0.0 0.0 0.00 0.00 0.69 74 1006.4
20260508015931 9 0 0.0 0.0 0.00 0.00 0.69 74 1006.4
20260508015747 9 0 0.0 0.0 0.00 0.00 0.69 74 1006.4
20260508015714 9 0 0.0 0.0 0.00 0.00 0.69 74 1006.4
20260508015547 9 0 0.0 0.0 0.00 0.00 0.69 74 1006.4
20260508015533 9 360 0.0 0.0 0.00 0.74 0.69 74 1006.5
20260508015446 9 0 0.0 0.0 0.00 0.00 0.69 74 1006.4
20260508015413 9 0 0.0 0.0 0.00 0.00 0.69 73 1006.3
20260508015345 9 0 0.0 0.0 0.00 0.00 0.69 74 1006.4
20260508015314 9 0 0.0 0.0 0.00 0.00 0.69 73 1006.3
20260508015309 9 0 0.0 0.0 0.00 0.00 0.69 73 1006.4
20260508015259 9 0 0.0 0.0 0.00 0.00 0.69 73 1006.4
20260508015018 10 360 0.0 0.0 0.00 0.74 0.69 73 1006.4
20260508014955 10 0 0.0 0.0 0.00 0.00 0.69 73 1006.3
20260508014950 9 0 0.0 0.0 0.00 0.00 0.69 73 1006.3
20260508014754 10 0 0.0 0.0 0.00 0.00 0.69 73 1006.2
20260508014749 10 0 0.0 0.0 0.00 0.00 0.69 73 1006.3
20260508014601 10 0 0.0 0.0 0.00 0.00 0.69 73 1006.2
20260508014540 10 0 0.0 0.0 0.00 0.00 0.69 73 1006.2
20260508014519 10 360 0.0 0.0 0.00 0.74 0.69 73 1006.3
20260508014451 10 0 0.0 0.0 0.00 0.00 0.69 72 1006.3
20260508014447 10 0 0.0 0.0 0.00 0.00 0.69 72 1006.2
20260508014328 10 0 0.0 0.0 0.00 0.00 0.69 71 1006.3
20260508014238 10 0 0.0 0.0 0.00 0.00 0.69 72 1006.3
20260508014218 10 0 0.0 0.0 0.00 0.00 0.69 70 1006.3
20260508014213 10 0 0.0 0.0 0.00 0.00 0.69 71 1006.3
20260508014058 10 0 0.0 0.0 0.00 0.00 0.69 70 1006.3
20260508014054 10 0 0.0 0.0 0.00 0.00 0.69 71 1006.3
20260508014018 10 360 0.0 0.0 0.00 0.74 0.69 71 1006.4
20260508013735 10 0 0.0 0.0 0.00 0.00 0.69 70 1006.2
20260508013635 10 0 0.0 0.0 0.00 0.00 0.69 70 1006.3
20260508013534 10 0 0.0 0.0 0.00 0.00 0.69 70 1006.3
20260508013519 10 360 0.0 0.0 0.00 0.74 0.69 70 1006.4
20260508013456 10 0 0.0 0.0 0.00 0.00 0.69 70 1006.3
20260508013343 10 0 0.0 0.0 0.00 0.00 0.69 69 1006.3
20260508013133 10 0 0.0 0.0 0.00 0.00 0.69 69 1006.3
20260508013034 10 360 0.0 0.0 0.00 0.74 0.69 69 1006.3
20260508012932 10 0 0.0 0.0 0.00 0.00 0.69 69 1006.3
20260508012832 10 0 0.0 0.0 0.00 0.00 0.69 69 1006.3
20260508012732 10 0 0.0 0.0 0.00 0.00 0.69 69 1006.3
20260508012631 10 0 0.0 0.0 0.00 0.00 0.69 69 1006.3
20260508012531 10 0 0.0 0.0 0.00 0.00 0.69 68 1006.3
20260508012519 10 360 0.0 0.0 0.00 0.74 0.69 68 1006.3
20260508012429 10 0 0.0 0.0 0.00 0.00 0.69 68 1006.3
20260508012330 10 0 0.0 0.0 0.00 0.00 0.69 67 1006.3
20260508012230 10 0 0.0 0.0 0.00 0.00 0.69 67 1006.3
20260508012129 10 0 0.0 0.0 0.00 0.00 0.69 67 1006.3
20260508012101 10 0 0.0 0.0 0.00 0.00 0.69 67 1006.2
20260508012050 10 0 0.0 0.0 0.00 0.00 0.69 66 1006.2
20260508012046 10 0 0.0 0.0 0.00 0.00 0.69 67 1006.2
20260508012019 10 360 0.0 0.0 0.00 0.74 0.69 67 1006.2
20260508011726 10 0 0.0 0.0 0.00 0.00 0.69 66 1006.2
20260508011702 10 0 0.0 0.0 0.00 0.00 0.69 66 1006.1
20260508011654 10 0 0.0 0.0 0.00 0.00 0.69 66 1006.2
20260508011544 10 0 0.0 0.0 0.00 0.00 0.69 66 1006.2
20260508011534 10 0 0.0 0.0 0.00 0.00 0.69 66 1006.1
20260508011518 10 360 0.0 0.0 0.00 0.74 0.69 66 1006.1
20260508011226 11 0 0.0 0.0 0.00 0.00 0.69 66 1006.1
20260508011200 11 0 0.0 0.0 0.00 0.00 0.69 66 1006.2
20260508011036 11 0 0.0 0.0 0.00 0.00 0.69 66 1006.2
20260508011032 11 0 0.0 0.0 0.00 0.00 0.69 65 1006.1
20260508011019 11 360 0.0 0.0 0.00 0.76 0.69 65 1006.2
20260508010909 11 0 0.0 0.0 0.00 0.00 0.69 66 1006.2
20260508010904 11 0 0.0 0.0 0.00 0.00 0.69 66 1006.1
20260508010900 11 0 0.0 0.0 0.00 0.00 0.69 65 1006.1
20260508010855 11 0 0.0 0.0 0.00 0.00 0.69 66 1006.1
20260508010629 11 0 0.0 0.0 0.00 0.00 0.69 66 1006.1
20260508010519 11 360 0.0 0.0 0.00 0.79 0.69 65 1006.1
20260508010422 11 0 0.0 0.0 0.00 0.00 0.69 65 1006.1
20260508010320 11 0 0.0 0.0 0.00 0.00 0.69 64 1006.1
20260508010220 11 0 0.0 0.0 0.00 0.00 0.69 65 1006.1
20260508010048 11 0 0.0 0.0 0.00 0.00 0.69 65 1006.1
20260508010019 11 360 0.0 0.0 0.00 0.79 0.69 64 1006.1
20260508005918 11 0 0.0 0.0 0.00 0.00 0.69 63 1006.1
20260508005817 11 0 0.0 0.0 0.00 0.00 0.69 62 1006.2
20260508005716 11 0 0.0 0.0 0.00 0.00 0.69 61 1006.1
20260508005616 11 0 0.0 0.0 0.00 0.00 0.69 61 1006.1
20260508005519 11 360 0.0 0.0 0.00 0.79 0.69 61 1006.0
20260508005516 11 0 0.0 0.0 0.00 0.00 0.69 61 1006.1
20260508005416 11 0 0.0 0.0 0.00 0.00 0.69 61 1006.1
20260508005316 11 0 0.0 0.0 0.00 0.00 0.69 61 1006.1
20260508005216 11 0 0.0 0.0 0.00 0.00 0.69 60 1006.1
20260508005114 11 0 0.0 0.0 0.00 0.00 0.69 60 1006.1
20260508005046 11 0 0.0 0.0 0.00 0.00 0.69 60 1006.1
20260508005019 12 360 0.0 0.0 0.00 0.79 0.69 60 1006.0
20260508005014 11 0 0.0 0.0 0.00 0.00 0.69 60 1006.1
20260508004915 12 0 0.0 0.0 0.00 0.00 0.69 60 1006.1
20260508004813 12 0 0.0 0.0 0.00 0.00 0.69 60 1006.1
20260508004713 12 0 0.0 0.0 0.00 0.00 0.69 60 1006.1
20260508004613 12 0 0.0 0.0 0.00 0.00 0.69 60 1006.1
20260508004525 12 0 0.0 0.0 0.00 0.00 0.69 60 1006.0
20260508004521 12 0 0.0 0.0 0.00 0.00 0.69 60 1006.1
20260508004519 12 360 0.0 0.0 0.00 0.79 0.69 60 1006.0
20260508004324 12 0 0.0 0.0 0.00 0.00 0.69 59 1006.1
20260508004320 12 0 0.0 0.0 0.00 0.00 0.69 59 1006.1
20260508004139 12 0 0.0 0.0 0.00 0.00 0.69 59 1006.0
20260508004134 12 0 0.0 0.0 0.00 0.00 0.69 59 1006.0
20260508004126 12 0 0.0 0.0 0.00 0.00 0.69 58 1006.0
20260508004104 12 360 0.0 0.0 0.00 0.79 0.69 58 1006.0
20260508003809 12 0 0.0 0.0 0.00 0.00 0.69 58 1006.0
20260508003708 12 0 0.0 0.0 0.00 0.00 0.69 57 1005.9
20260508003609 12 0 0.0 0.0 0.00 0.00 0.69 56 1005.9
20260508003540 12 0 0.0 0.0 0.00 0.00 0.69 56 1005.9
20260508003520 13 360 0.0 0.0 0.00 0.79 0.69 56 1005.9
20260508003508 13 0 0.0 0.0 0.00 0.00 0.69 56 1005.9
20260508003408 13 0 0.0 0.0 0.00 0.00 0.69 55 1005.9
20260508003308 13 0 0.0 0.0 0.00 0.00 0.69 53 1005.9
20260508003234 13 0 0.0 0.0 0.00 0.00 0.69 52 1005.9
20260508003121 13 0 0.0 0.0 0.00 0.00 0.69 52 1005.9
20260508003113 13 0 0.0 0.0 0.00 0.00 0.69 52 1005.9
20260508003019 13 360 0.0 0.0 0.00 0.79 0.69 52 1005.9
20260508002906 13 0 0.0 0.0 0.00 0.00 0.69 52 1006.0
20260508002809 13 0 0.0 0.0 0.00 0.00 0.69 51 1005.9
20260508002805 13 0 0.0 0.0 0.00 0.00 0.69 52 1005.9
20260508002705 13 0 0.0 0.0 0.00 0.00 0.69 51 1006.0
20260508002644 13 0 0.0 0.0 0.00 0.00 0.69 51 1005.9
20260508002519 13 360 0.0 0.0 0.00 0.79 0.69 52 1005.8
20260508002504 13 0 0.0 0.0 0.00 0.00 0.69 52 1005.9
20260508002416 13 0 0.0 0.0 0.00 0.00 0.69 54 1005.9
20260508002412 13 0 0.0 0.0 0.00 0.00 0.69 53 1005.9
20260508002202 14 0 0.0 0.0 0.00 0.00 0.69 54 1005.9
20260508002036 14 0 0.0 0.0 0.00 0.00 0.69 54 1005.9
20260508002018 14 360 0.0 0.0 0.00 0.79 0.69 54 1005.8
20260508002001 14 0 0.0 0.0 0.00 0.00 0.69 54 1005.9
20260508001902 14 0 0.0 0.0 0.00 0.00 0.69 54 1005.9
20260508001801 14 0 0.0 0.0 0.00 0.00 0.69 54 1005.9
20260508001714 14 0 0.0 0.0 0.00 0.00 0.69 51 1005.9
20260508001710 14 0 0.0 0.0 0.00 0.00 0.69 53 1005.9
20260508001604 14 360 0.0 0.0 0.00 0.79 0.69 51 1005.7
20260508001535 14 0 0.0 0.0 0.00 0.00 0.69 51 1005.9
20260508001500 14 0 0.0 0.0 0.00 0.00 0.69 51 1005.8
20260508001359 14 0 0.0 0.0 0.00 0.00 0.69 51 1005.8
20260508001259 15 0 0.0 0.0 0.00 0.00 0.69 50 1005.8
20260508001159 15 0 0.0 0.0 0.00 0.00 0.69 49 1005.8
20260508001035 15 0 0.0 0.0 0.00 0.00 0.69 48 1005.8
20260508001019 15 360 0.0 0.0 0.00 0.79 0.69 48 1005.7
20260508000958 15 0 0.0 0.0 0.00 0.00 0.69 48 1005.8
20260508000859 15 0 0.0 0.0 0.00 0.00 0.69 47 1005.8
20260508000758 15 0 0.0 0.0 0.00 0.00 0.69 47 1005.8
20260508000712 15 0 0.0 0.0 0.00 0.00 0.69 46 1005.8
20260508000707 15 0 0.0 0.0 0.00 0.00 0.69 47 1005.8
20260508000535 15 0 0.0 0.0 0.00 0.00 0.69 45 1005.8
20260508000519 15 360 0.0 0.0 0.00 0.79 0.69 45 1005.7
20260508000457 15 0 0.0 0.0 0.00 0.00 0.69 45 1005.8
20260508000357 15 0 0.0 0.0 0.00 0.00 0.69 44 1005.7
20260508000300 15 0 0.0 0.0 0.00 0.00 0.69 44 1005.7
20260508000252 15 0 0.0 0.0 0.00 0.00 0.69 44 1005.7
20260508000156 15 0 0.0 0.0 0.00 0.00 0.69 44 1005.7
20260508000142 15 0 0.0 0.0 0.00 0.00 0.69 44 1005.7
20260508000019 15 360 0.0 0.0 0.00 0.79 0.69 44 1005.6
20260507235955 15 0 0.0 0.0 0.00 0.00 0.69 44 1005.7
20260507235922 15 0 0.0 0.0 0.00 0.00 0.69 43 1005.7
20260507235918 15 0 0.0 0.0 0.00 0.00 0.69 43 1005.7
20260507235912 15 0 0.0 0.0 0.00 0.00 0.69 43 1005.7
20260507235534 15 0 0.0 0.0 0.00 0.00 0.69 43 1005.7
20260507235519 15 360 0.0 0.0 0.00 0.79 0.69 43 1005.5
20260507235453 15 0 0.0 0.0 0.00 0.00 0.69 43 1005.6
20260507235352 15 0 0.0 0.0 0.00 0.00 0.69 42 1005.6
20260507235252 15 0 0.0 0.0 0.00 0.00 0.69 42 1005.6
20260507235151 16 0 0.0 0.0 0.00 0.00 0.69 43 1005.6
20260507235033 16 360 0.0 0.0 0.00 0.79 0.69 42 1005.5
20260507234952 16 0 0.0 0.0 0.00 0.00 0.69 42 1005.6
20260507234850 16 0 0.0 0.0 0.00 0.00 0.69 42 1005.6
20260507234750 16 0 0.0 0.0 0.00 0.00 0.69 41 1005.6
20260507234650 16 0 0.0 0.0 0.00 0.00 0.69 41 1005.6
20260507234549 16 0 0.0 0.0 0.00 0.00 0.69 40 1005.6
20260507234534 16 0 0.0 0.0 0.00 0.00 0.69 40 1005.6
20260507234519 16 360 0.0 0.0 0.00 0.79 0.69 40 1005.4
20260507234449 16 0 0.0 0.0 0.00 0.00 0.69 40 1005.5
20260507234349 16 0 0.0 0.0 0.00 0.00 0.69 40 1005.5
20260507234302 16 0 0.0 0.0 0.00 0.00 0.69 40 1005.5
20260507234257 16 0 0.0 0.0 0.00 0.00 0.69 40 1005.5
20260507234108 16 0 0.0 0.0 0.00 0.00 0.69 41 1005.5
20260507234020 16 360 0.0 0.0 0.00 0.79 0.69 41 1005.4
20260507233956 16 0 0.0 0.0 0.00 0.00 0.69 40 1005.5
20260507233746 16 0 0.0 0.0 0.00 0.00 0.69 39 1005.5
20260507233646 16 0 0.0 0.0 0.00 0.00 0.69 40 1005.5
20260507233604 16 0 0.0 0.0 0.00 0.00 0.69 40 1005.5
20260507233552 16 0 0.0 0.0 0.00 0.00 0.69 40 1005.5
20260507233519 16 360 0.0 0.0 0.00 0.79 0.69 40 1005.4
20260507233343 16 0 0.0 0.0 0.00 0.00 0.69 40 1005.5
20260507233243 16 0 0.0 0.0 0.00 0.00 0.69 40 1005.5
20260507233143 16 0 0.0 0.0 0.00 0.00 0.69 40 1005.5
20260507233101 16 0 0.0 0.0 0.00 0.00 0.69 39 1005.5
20260507233048 16 0 0.0 0.0 0.00 0.00 0.69 40 1005.5
20260507233019 16 360 0.0 0.0 0.00 0.79 0.69 40 1005.4
20260507232840 16 0 0.0 0.0 0.00 0.00 0.69 38 1005.5
20260507232740 16 0 0.0 0.0 0.00 0.00 0.69 39 1005.5
20260507232640 16 0 0.0 0.0 0.00 0.00 0.69 39 1005.5
20260507232528 16 0 0.0 0.0 0.00 0.00 0.69 39 1005.5
20260507232518 16 360 0.0 0.0 0.00 0.79 0.69 39 1005.4
20260507232514 16 0 0.0 0.0 0.00 0.00 0.69 38 1005.5
20260507232509 16 0 0.0 0.0 0.00 0.00 0.69 39 1005.5
20260507232355 16 0 0.0 0.0 0.00 0.00 0.69 38 1005.5
20260507232027 16 0 0.0 0.0 0.00 0.00 0.69 38 1005.5
20260507232019 16 360 0.0 0.0 0.00 0.79 0.69 38 1005.3
20260507231936 16 0 0.0 0.0 0.00 0.00 0.69 38 1005.4
20260507231850 16 0 0.0 0.0 0.00 0.00 0.69 37 1005.4
20260507231845 16 0 0.0 0.0 0.00 0.00 0.69 37 1005.5
20260507231635 16 0 0.0 0.0 0.00 0.00 0.69 37 1005.4
20260507231525 16 0 0.0 0.0 0.00 0.00 0.69 37 1005.4
20260507231518 17 360 0.0 0.0 0.00 0.79 0.69 36 1005.3
20260507231434 16 0 0.0 0.0 0.00 0.00 0.69 36 1005.4
20260507231334 17 0 0.0 0.0 0.00 0.00 0.69 37 1005.5
20260507231233 17 0 0.0 0.0 0.00 0.00 0.69 37 1005.5
20260507231133 17 0 0.0 0.0 0.00 0.00 0.69 37 1005.6
20260507231025 17 0 0.0 0.0 0.00 0.00 0.69 36 1005.6
20260507231019 17 360 0.0 0.0 0.00 0.79 0.69 37 1005.5
20260507230932 17 0 0.0 0.0 0.00 0.00 0.69 37 1005.7
20260507230850 17 0 0.0 0.0 0.00 0.00 0.69 34 1005.6
20260507230846 17 0 0.0 0.0 0.00 0.00 0.69 35 1005.6
20260507230841 17 0 0.0 0.0 0.00 0.00 0.69 37 1005.6
20260507230640 17 0 0.0 0.0 0.00 0.00 0.69 35 1005.6
20260507230631 17 0 0.0 0.0 0.00 0.00 0.69 35 1005.6
20260507230520 17 360 0.0 0.0 0.00 0.79 0.69 35 1005.4
20260507230444 17 0 0.0 0.0 0.00 0.00 0.69 35 1005.6
20260507230439 17 0 0.0 0.0 0.00 0.00 0.69 36 1005.6
20260507230229 17 0 0.0 0.0 0.00 0.00 0.69 35 1005.6
20260507230143 17 0 0.0 0.0 0.00 0.00 0.69 36 1005.5
20260507230137 17 0 0.0 0.0 0.00 0.00 0.69 35 1005.5
20260507230021 17 0 0.0 0.0 0.00 0.00 0.69 36 1005.5
20260507230019 17 360 0.0 0.0 0.00 0.79 0.69 36 1005.3
20260507225927 17 0 0.0 0.0 0.00 0.00 0.69 35 1005.5
20260507225826 17 0 0.0 4.8 0.00 0.00 0.69 35 1005.5
20260507225742 17 0 0.0 4.8 0.00 0.00 0.69 35 1005.4
20260507225726 17 0 0.0 4.8 0.00 0.00 0.69 35 1005.5
20260507225637 17 0 0.0 4.8 0.00 0.00 0.69 35 1005.4
20260507225628 17 0 0.0 4.8 0.00 0.00 0.69 35 1005.4
20260507225549 17 360 0.0 4.8 0.00 0.79 0.69 35 1005.2
20260507225424 17 0 0.0 4.8 0.00 0.00 0.69 35 1005.4
20260507225325 17 0 0.0 4.8 0.00 0.00 0.69 35 1005.4
20260507225245 17 0 0.0 4.8 0.00 0.00 0.69 35 1005.5
20260507225224 17 0 0.0 4.8 0.00 0.00 0.69 35 1005.4
20260507225135 17 0 0.0 4.8 0.00 0.00 0.69 35 1005.4
20260507225126 17 0 0.0 4.8 0.00 0.00 0.69 35 1005.5
20260507225019 17 360 0.0 4.8 0.00 0.79 0.69 35 1005.2
20260507224924 17 0 0.0 4.8 0.00 0.00 0.69 35 1005.4
20260507224837 18 0 0.0 4.8 0.00 0.00 0.69 36 1005.4
20260507224832 18 0 0.0 3.2 0.00 0.00 0.69 36 1005.4
20260507224623 18 0 0.0 4.8 0.00 0.00 0.69 35 1005.4
20260507224554 18 0 0.0 6.4 0.00 0.00 0.69 33 1005.4
20260507224550 18 0 0.0 6.4 0.00 0.00 0.69 35 1005.4
20260507224538 18 0 0.0 4.8 0.00 0.00 0.69 34 1005.4
20260507224519 18 360 0.0 4.8 0.00 0.79 0.69 34 1005.2
20260507224234 18 0 0.0 6.4 0.00 0.00 0.69 35 1005.4
20260507224229 18 0 0.0 6.4 0.00 0.00 0.69 34 1005.4
20260507224021 18 0 0.0 6.4 0.00 0.00 0.69 34 1005.4
20260507224019 18 360 0.0 6.4 0.00 0.79 0.69 34 1005.2
20260507223933 18 0 0.0 6.4 0.00 0.00 0.69 34 1005.4
20260507223928 18 0 0.0 6.4 0.00 0.00 0.69 35 1005.4
20260507223717 18 0 0.0 6.4 0.00 0.00 0.69 34 1005.5
20260507223618 18 0 0.0 6.4 0.00 0.00 0.69 34 1005.5
20260507223523 18 252 0.0 6.4 0.00 0.00 0.69 34 1005.4
20260507223520 18 303 0.0 6.4 0.00 0.79 0.69 34 1005.2
20260507223517 18 286 0.0 6.4 0.00 0.00 0.69 34 1005.4
20260507223417 18 319 0.0 3.2 0.00 0.00 0.69 36 1005.4
20260507223317 18 249 0.0 3.2 0.00 0.00 0.69 35 1005.4
20260507223257 18 252 0.0 3.2 0.00 0.00 0.69 34 1005.4
20260507223252 18 249 0.0 3.2 0.00 0.00 0.69 35 1005.4
20260507223024 18 252 0.0 3.2 0.00 0.00 0.69 34 1005.4
20260507223019 18 252 0.0 6.4 0.00 0.79 0.69 34 1005.2
20260507222814 18 0 0.0 8.0 0.00 0.00 0.69 34 1005.4
20260507222740 18 0 0.0 8.0 0.00 0.00 0.69 34 1005.4
20260507222627 18 0 0.0 8.0 0.00 0.00 0.69 34 1005.2
20260507222618 18 0 0.0 8.0 0.00 0.00 0.69 34 1005.2
20260507222519 18 360 0.0 8.0 0.00 0.79 0.69 34 1005.2
20260507222412 18 0 0.0 8.0 0.00 0.00 0.69 34 1005.4
20260507222312 18 0 0.0 8.0 0.00 0.00 0.69 35 1005.4
20260507222211 18 0 0.0 8.0 0.00 0.00 0.69 36 1005.5
20260507222110 18 0 0.0 8.0 0.00 0.00 0.69 34 1005.4
20260507222019 18 360 6.4 8.0 0.00 0.79 0.69 33 1005.2
20260507222015 18 0 0.0 8.0 0.00 0.00 0.69 33 1005.4
20260507222010 18 0 0.0 8.0 0.00 0.00 0.69 33 1005.4
20260507221910 18 0 0.0 0.0 0.00 0.00 0.69 34 1005.2
20260507221810 18 236 0.0 0.0 0.00 0.00 0.69 33 1005.4
20260507221709 18 309 0.0 3.2 0.00 0.00 0.69 34 1005.4
20260507221608 18 306 0.0 3.2 0.00 0.00 0.69 34 1005.5
20260507221519 18 253 0.0 3.2 0.00 0.79 0.69 34 1005.2
20260507221509 18 253 0.0 3.2 0.00 0.00 0.69 34 1005.4
20260507221444 18 0 0.0 3.2 0.00 0.00 0.69 33 1005.4
20260507221438 18 241 0.0 3.2 0.00 0.00 0.69 34 1005.5
20260507221325 18 0 0.0 3.2 0.00 0.00 0.69 33 1005.4
20260507221033 18 0 0.0 3.2 0.00 0.00 0.69 33 1005.5
20260507221027 18 232 0.0 3.2 0.00 0.00 0.69 33 1005.5
20260507221018 18 360 0.0 3.2 0.00 0.79 0.69 33 1005.3
20260507220914 18 309 0.0 3.2 0.00 0.00 0.69 34 1005.5
20260507220705 18 275 0.0 1.6 0.00 0.00 0.69 34 1005.5
20260507220603 18 275 0.0 1.6 0.00 0.00 0.69 35 1005.6
20260507220519 18 275 0.0 1.6 0.00 0.79 0.69 33 1005.3
20260507220514 18 275 0.0 1.6 0.00 0.00 0.69 33 1005.6
20260507220502 18 275 0.0 1.6 0.00 0.00 0.69 33 1005.5
20260507220400 18 290 0.0 1.6 0.00 0.00 0.69 33 1005.5
20260507220300 18 310 0.0 1.6 0.00 0.00 0.69 33 1005.5
20260507220159 18 319 0.0 1.6 0.00 0.00 0.69 34 1005.5
20260507220057 18 318 0.0 1.6 0.00 0.00 0.69 33 1005.5
20260507220049 18 275 0.0 1.6 0.00 0.79 0.69 33 1005.2
20260507220017 18 276 0.0 1.6 0.00 0.00 0.69 33 1005.4
20260507220010 18 51 0.0 1.6 0.00 0.00 0.69 33 1005.4
20260507220006 18 292 0.0 1.6 0.00 0.00 0.69 33 1005.4
20260507215756 18 319 0.0 1.6 0.00 0.00 0.69 33 1005.5
20260507215708 18 296 0.0 1.6 0.00 0.00 0.69 33 1005.5
20260507215704 18 277 0.0 1.6 0.00 0.00 0.69 33 1005.5
20260507215519 18 309 1.6 1.6 0.00 0.79 0.69 33 1005.3
20260507215513 18 315 0.0 1.6 0.00 0.00 0.69 33 1005.5
20260507215454 18 278 0.0 0.0 0.00 0.00 0.69 32 1005.5
20260507215354 18 284 0.0 1.6 0.00 0.00 0.69 31 1005.4
20260507215307 18 297 0.0 1.6 0.00 0.00 0.69 32 1005.4
20260507215052 18 344 0.0 1.6 0.00 0.00 0.69 32 1005.4
20260507215019 18 342 0.0 0.0 0.00 0.79 0.69 32 1005.2
20260507215012 18 342 0.0 1.6 0.00 0.00 0.69 32 1005.4
20260507214951 18 342 0.0 1.6 0.00 0.00 0.69 33 1005.4
20260507214904 18 311 0.0 1.6 0.00 0.00 0.69 33 1005.4
20260507214900 18 325 0.0 1.6 0.00 0.00 0.69 34 1005.2
20260507214704 18 340 0.0 4.8 0.00 0.00 0.69 33 1005.4
20260507214700 18 327 0.0 1.6 0.00 0.00 0.69 34 1005.4
20260507214549 18 5 0.0 1.6 0.00 0.79 0.69 32 1005.2
20260507214512 18 5 0.0 4.8 0.00 0.00 0.69 32 1005.4
20260507214503 18 309 0.0 6.4 0.00 0.00 0.69 34 1005.4
20260507214459 18 9 0.0 4.8 0.00 0.00 0.69 33 1005.4
20260507214316 18 307 0.0 6.4 0.00 0.00 0.69 32 1005.4
20260507214312 18 265 0.0 6.4 0.00 0.00 0.69 32 1005.5
20260507214307 18 309 0.0 6.4 0.00 0.00 0.69 33 1005.4
20260507214019 18 306 0.0 14.5 0.00 0.79 0.69 32 1005.3
20260507214011 18 306 0.0 14.5 0.00 0.00 0.69 32 1005.5
20260507213948 18 263 0.0 14.5 0.00 0.00 0.69 32 1005.5
20260507213848 18 316 0.0 14.5 0.00 0.00 0.69 32 1005.5
20260507213747 18 317 0.0 14.5 0.00 0.00 0.69 31 1005.6
20260507213737 18 276 0.0 14.5 0.00 0.00 0.69 32 1005.6
20260507213646 18 319 0.0 14.5 0.00 0.00 0.69 32 1005.5
20260507213618 18 284 0.0 14.5 0.00 0.00 0.69 33 1005.6
20260507213518 18 277 0.0 14.5 0.00 0.79 0.69 32 1005.4
20260507213446 18 280 0.0 14.5 0.00 0.00 0.69 32 1005.6
20260507213346 18 267 0.0 14.5 0.00 0.00 0.69 33 1005.5
20260507213245 18 257 0.0 14.5 0.00 0.00 0.69 33 1005.5
20260507213145 18 275 0.0 14.5 0.00 0.00 0.69 33 1005.5
20260507213045 18 280 0.0 14.5 0.00 0.00 0.69 33 1005.5
20260507213019 18 283 0.0 4.8 0.00 0.79 0.69 33 1005.3
20260507213010 18 283 0.0 4.8 0.00 0.00 0.69 33 1005.5
20260507212957 18 275 0.0 4.8 0.00 0.00 0.69 33 1005.5
20260507212953 18 271 0.0 4.8 0.00 0.00 0.69 33 1005.5
20260507212744 18 311 0.0 4.8 0.00 0.00 0.69 33 1005.5
20260507212642 18 281 0.0 4.8 0.00 0.00 0.69 33 1005.5
20260507212603 18 321 0.0 4.8 0.00 0.00 0.69 34 1005.5
20260507212558 18 234 0.0 4.8 0.00 0.00 0.69 33 1005.5
20260507212550 18 291 0.0 4.8 0.00 0.00 0.69 34 1005.5
20260507212519 18 291 0.0 4.8 0.00 0.79 0.69 34 1005.3
20260507212357 18 247 0.0 6.4 0.00 0.00 0.69 34 1005.5
20260507212351 18 323 0.0 4.8 0.00 0.00 0.69 34 1005.6
20260507212155 18 325 0.0 12.9 0.00 0.00 0.69 32 1005.5
20260507212149 18 229 0.0 11.3 0.00 0.00 0.69 32 1005.6
20260507212030 18 323 0.0 12.9 0.00 0.00 0.69 32 1005.5
20260507212023 18 277 0.0 12.9 0.00 0.00 0.69 32 1005.5
20260507212019 18 323 0.0 12.9 0.00 0.79 0.69 32 1005.3
20260507211910 18 265 0.0 12.9 0.00 0.00 0.69 32 1005.5
20260507211757 18 273 0.0 12.9 0.00 0.00 0.69 33 1005.5
20260507211519 18 330 0.0 12.9 0.00 0.79 0.69 37 1005.2
20260507211510 18 330 0.0 12.9 0.00 0.00 0.69 37 1005.4
20260507211438 18 330 0.0 12.9 0.00 0.00 0.69 35 1005.4
20260507211338 18 290 0.0 12.9 0.00 0.00 0.69 33 1005.5
20260507211237 18 262 0.0 12.9 0.00 0.00 0.69 33 1005.4
20260507211136 18 279 0.0 12.9 0.00 0.00 0.69 33 1005.4
20260507211035 18 302 0.0 9.7 0.00 0.00 0.69 35 1005.4
20260507211019 18 315 0.0 6.4 0.00 0.79 0.69 35 1005.2
20260507211009 18 315 0.0 9.7 0.00 0.00 0.69 35 1005.4
20260507210935 18 315 0.0 9.7 0.00 0.00 0.69 35 1005.4
20260507210834 18 302 0.0 6.4 0.00 0.00 0.69 38 1005.2
20260507210733 18 70 0.0 6.4 0.00 0.00 0.69 36 1005.2
20260507210633 18 257 0.0 6.4 0.00 0.00 0.69 36 1005.2
20260507210533 18 326 0.0 6.4 0.00 0.00 0.69 37 1005.2
20260507210519 18 304 0.0 6.4 0.00 0.79 0.69 37 1005.1
20260507210514 18 304 0.0 6.4 0.00 0.00 0.69 37 1005.2
20260507210508 18 0 0.0 0.0 0.00 0.00 0.69 34 1005.4
20260507210504 18 0 0.0 0.0 0.00 0.00 0.69 34 1005.2
20260507210459 18 0 0.0 3.2 0.00 0.00 0.69 35 1005.2
20260507210345 18 0 0.0 3.2 0.00 0.00 0.69 33 1005.2
20260507210227 18 0 0.0 0.0 0.00 0.00 0.69 35 1005.2
20260507210019 18 360 0.0 0.0 0.00 0.79 0.69 34 1005.2
20260507205929 18 0 0.0 0.0 0.00 0.00 0.69 38 1005.4
20260507205842 18 0 0.0 0.0 0.00 0.00 0.69 34 1005.2
20260507205727 18 0 0.0 0.0 0.00 0.00 0.69 34 1005.2
20260507205627 18 0 0.0 0.0 0.00 0.00 0.69 33 1005.4
20260507205618 18 0 0.0 0.0 0.00 0.00 0.69 35 1005.2
20260507205519 18 360 0.0 0.0 0.00 0.79 0.69 34 1005.2
20260507205426 18 0 0.0 0.0 0.00 0.00 0.69 33 1005.4
20260507205326 18 0 0.0 1.6 0.00 0.00 0.69 34 1005.2
20260507205224 18 0 0.0 1.6 0.00 0.00 0.69 35 1005.2
20260507205124 18 0 0.0 1.6 0.00 0.00 0.69 34 1005.2
20260507205023 18 0 0.0 1.6 0.00 0.00 0.69 33 1005.2
20260507205019 18 360 0.0 1.6 0.00 0.79 0.69 33 1005.1
20260507205010 18 0 0.0 1.6 0.00 0.00 0.69 34 1005.2
20260507204923 18 0 0.0 1.6 0.00 0.00 0.69 34 1005.2
20260507204823 18 0 0.0 1.6 0.00 0.00 0.69 33 1005.2
20260507204722 18 0 0.0 1.6 0.00 0.00 0.69 32 1005.2
20260507204622 18 0 0.0 1.6 0.00 0.00 0.69 32 1005.2
20260507204521 18 0 0.0 1.6 0.00 0.00 0.69 32 1005.2
20260507204519 19 360 0.0 1.6 0.00 0.79 0.69 32 1005.1
20260507204510 19 0 0.0 1.6 0.00 0.00 0.69 32 1005.2
20260507204421 19 0 0.0 1.6 0.00 0.00 0.69 31 1005.2
20260507204335 19 0 0.0 1.6 0.00 0.00 0.69 30 1005.2
20260507204330 19 0 0.0 1.6 0.00 0.00 0.69 30 1005.2
20260507204120 19 0 0.0 1.6 0.00 0.00 0.69 30 1005.2
20260507204020 19 226 0.0 1.6 0.00 0.00 0.69 30 1005.2
20260507204009 19 232 0.0 1.6 0.00 0.00 0.69 30 1005.2
20260507203920 19 265 0.0 1.6 0.00 0.00 0.69 32 1005.2
20260507203818 19 250 0.0 1.6 0.00 0.00 0.69 32 1005.2
20260507203718 19 265 0.0 1.6 0.00 0.00 0.69 32 1005.2
20260507203618 19 271 0.0 1.6 0.00 0.00 0.69 33 1005.2
20260507203604 19 252 0.0 8.0 0.00 0.00 0.69 33 1005.1
20260507203559 19 274 0.0 8.0 0.00 0.00 0.69 34 1005.1
20260507203554 19 319 0.0 8.0 0.00 0.00 0.69 34 1005.1
20260507203550 19 286 0.0 8.0 0.00 0.79 0.69 33 1005.0
20260507203542 19 287 0.0 8.0 0.00 0.00 0.69 33 1005.1
20260507203115 19 313 0.0 8.0 0.00 0.00 0.69 33 1005.1
20260507203019 19 317 0.0 8.0 0.00 0.79 0.69 32 1004.9
20260507203015 19 317 0.0 8.0 0.00 0.00 0.69 32 1005.0
20260507203007 19 321 0.0 8.0 0.00 0.00 0.69 32 1005.0
20260507202914 19 222 0.0 8.0 0.00 0.00 0.69 32 1005.1
20260507202813 19 294 0.0 8.0 0.00 0.00 0.69 32 1005.1
20260507202713 19 251 0.0 8.0 0.00 0.00 0.69 33 1005.2
20260507202611 19 293 0.0 8.0 0.00 0.00 0.69 33 1005.2
20260507202545 19 306 0.0 1.6 0.00 0.00 0.69 32 1005.2
20260507202541 19 285 0.0 1.6 0.00 0.00 0.69 33 1005.1
20260507202529 19 297 0.0 1.6 0.00 0.00 0.69 32 1005.2
20260507202519 19 297 0.0 1.6 0.00 0.79 0.69 32 1005.1
20260507202211 19 261 0.0 1.6 0.00 0.00 0.69 33 1005.2
20260507202110 19 309 0.0 1.6 0.00 0.00 0.69 33 1005.1
20260507202034 19 226 0.0 1.6 0.00 0.79 0.69 33 1005.0
20260507202013 19 256 0.0 1.6 0.00 0.00 0.69 33 1005.1
20260507202006 19 271 0.0 1.6 0.00 0.00 0.69 33 1005.1
20260507201909 19 283 0.0 1.6 0.00 0.00 0.69 33 1005.1
20260507201808 19 275 0.0 1.6 0.00 0.00 0.69 33 1005.1
20260507201740 18 275 0.0 1.6 0.00 0.00 0.69 36 1005.1
20260507201736 18 275 0.0 1.6 0.00 0.00 0.69 35 1005.1
20260507201730 19 275 0.0 1.6 0.00 0.00 0.69 34 1005.1
20260507201519 18 275 0.0 1.6 0.00 0.79 0.69 35 1005.0
20260507201508 18 275 0.0 1.6 0.00 0.00 0.69 35 1005.1
20260507201406 18 275 0.0 1.6 0.00 0.00 0.69 36 1005.2
20260507201348 18 270 0.0 1.6 0.00 0.00 0.69 35 1005.2
20260507201341 18 275 0.0 1.6 0.00 0.00 0.69 35 1005.2
20260507201228 18 275 0.0 1.6 0.00 0.00 0.69 34 1005.2
20260507201219 18 271 0.0 1.6 0.00 0.00 0.69 35 1005.2
20260507201019 18 270 0.0 1.6 0.00 0.79 0.69 35 1005.1
20260507200918 18 311 0.0 1.6 0.00 0.00 0.69 37 1005.4
20260507200913 18 269 0.0 1.6 0.00 0.00 0.69 35 1005.2
20260507200703 18 283 0.0 1.6 0.00 0.00 0.69 35 1005.4
20260507200602 18 302 0.0 1.6 0.00 0.00 0.69 36 1005.4
20260507200519 18 272 0.0 0.0 0.00 0.79 0.69 37 1005.2
20260507200503 18 272 0.0 0.0 0.00 0.00 0.69 37 1005.4
20260507200401 18 295 0.0 0.0 0.00 0.00 0.69 40 1005.4
20260507200301 18 295 0.0 0.0 0.00 0.00 0.69 36 1005.4
20260507200201 18 295 0.0 0.0 0.00 0.00 0.69 34 1005.4
20260507200100 17 294 0.0 0.0 0.00 0.00 0.69 33 1005.5
20260507200019 17 296 0.0 0.0 0.00 0.79 0.69 37 1005.2
20260507200000 17 296 0.0 0.0 0.00 0.00 0.69 37 1005.4
20260507195900 17 246 0.0 0.0 0.00 0.00 0.69 37 1005.4
20260507195759 17 0 0.0 0.0 0.00 0.00 0.69 37 1005.4
20260507195737 18 0 0.0 1.6 0.00 0.00 0.69 35 1005.5
20260507195659 17 0 0.0 0.0 0.00 0.00 0.69 36 1005.5
20260507195626 18 0 0.0 1.6 0.00 0.00 0.69 34 1005.6
20260507195621 18 0 0.0 0.0 0.00 0.00 0.69 33 1005.5
20260507195519 18 360 0.0 1.6 0.00 0.79 0.69 35 1005.3
20260507195507 18 0 0.0 1.6 0.00 0.00 0.69 35 1005.5
20260507195256 18 0 0.0 1.6 0.00 0.00 0.69 33 1005.6
20260507195156 18 0 0.0 1.6 0.00 0.00 0.69 34 1005.6
20260507195055 18 0 0.0 1.6 0.00 0.00 0.69 31 1005.5
20260507195019 18 360 0.0 1.6 0.00 0.79 0.69 32 1005.3
20260507194955 18 0 0.0 1.6 0.00 0.00 0.69 32 1005.5
20260507194855 18 0 0.0 1.6 0.00 0.00 0.69 33 1005.6
20260507194754 18 0 0.0 1.6 0.00 0.00 0.69 32 1005.6
20260507194654 18 0 0.0 1.6 0.00 0.00 0.69 33 1005.7
20260507194614 19 259 0.0 1.6 0.00 0.00 0.69 34 1005.7
20260507194609 19 0 0.0 1.6 0.00 0.00 0.69 32 1005.7
20260507194559 19 277 0.0 0.0 0.00 0.00 0.69 34 1005.7
20260507194549 19 360 1.6 1.6 0.00 0.79 0.69 34 1005.5
20260507194352 19 0 0.0 1.6 0.00 0.00 0.69 34 1005.6
20260507194306 19 236 0.0 4.8 0.00 0.00 0.69 38 1005.7
20260507194301 19 238 0.0 4.8 0.00 0.00 0.69 38 1005.7
20260507194051 19 236 0.0 4.8 0.00 0.00 0.69 37 1005.7
20260507194019 19 236 0.0 4.8 0.00 0.79 0.69 37 1005.5
20260507193956 19 242 0.0 4.8 0.00 0.00 0.69 35 1005.7
20260507193951 19 244 0.0 4.8 0.00 0.00 0.69 35 1005.7
20260507193850 19 245 0.0 4.8 0.00 0.00 0.69 36 1005.7
20260507193750 19 242 0.0 4.8 0.00 0.00 0.69 36 1005.8
20260507193735 19 11 0.0 4.8 0.00 0.00 0.69 31 1005.7
20260507193731 19 245 0.0 4.8 0.00 0.00 0.69 32 1005.8
20260507193725 19 254 0.0 4.8 0.00 0.00 0.69 33 1005.8
20260507193720 19 22 0.0 4.8 0.00 0.00 0.69 33 1005.7
20260507193602 19 259 0.0 4.8 0.00 0.00 0.69 32 1005.8
20260507193519 19 261 0.0 4.8 0.00 0.79 0.69 31 1005.6
20260507193247 19 288 0.0 3.2 0.00 0.00 0.69 34 1005.8
20260507193145 19 319 0.0 12.9 0.00 0.00 0.69 32 1005.8
20260507193046 19 314 0.0 12.9 0.00 0.00 0.69 32 1005.7
20260507193019 19 314 3.2 12.9 0.00 0.79 0.69 32 1005.6
20260507192953 19 253 0.0 12.9 0.00 0.00 0.69 33 1005.8
20260507192945 19 252 0.0 12.9 0.00 0.00 0.69 33 1005.8
20260507192844 19 272 0.0 12.9 0.00 0.00 0.69 32 1005.8
20260507192744 19 281 0.0 12.9 0.00 0.00 0.69 34 1005.8
20260507192658 19 271 0.0 12.9 0.00 0.00 0.69 31 1005.8
20260507192652 19 255 0.0 12.9 0.00 0.00 0.69 33 1005.8
20260507192519 20 289 0.0 12.9 0.00 0.79 0.69 32 1005.6
20260507192454 19 288 0.0 12.9 0.00 0.00 0.69 33 1005.8
20260507192443 19 316 0.0 12.9 0.00 0.00 0.69 33 1005.8
20260507192356 19 225 0.0 12.9 0.00 0.00 0.69 32 1005.8
20260507192351 19 248 0.0 12.9 0.00 0.00 0.69 32 1005.8
20260507192215 19 287 0.0 11.3 0.00 0.00 0.69 36 1005.8
20260507192141 19 213 0.0 1.6 0.00 0.00 0.69 34 1005.8
20260507192109 19 257 0.0 11.3 0.00 0.00 0.69 36 1005.9
20260507192104 19 265 0.0 6.4 0.00 0.00 0.69 36 1005.9
20260507192019 19 281 0.0 11.3 0.00 0.79 0.69 36 1005.6
20260507191949 19 287 0.0 11.3 0.00 0.00 0.69 35 1005.8
20260507191740 19 272 0.0 11.3 0.00 0.00 0.69 37 1005.8
20260507191653 18 225 0.0 11.3 0.00 0.00 0.69 35 1005.9
20260507191648 19 227 0.0 11.3 0.00 0.00 0.69 37 1005.9
20260507191534 18 225 0.0 11.3 0.00 0.79 0.69 36 1005.7
20260507191452 18 222 0.0 11.3 0.00 0.00 0.69 36 1005.9
20260507191438 18 226 0.0 11.3 0.00 0.00 0.69 36 1005.9
20260507191338 18 251 0.0 11.3 0.00 0.00 0.69 37 1006.0
20260507191237 18 217 0.0 11.3 0.00 0.00 0.69 37 1006.0
20260507191150 18 284 0.0 11.3 0.00 0.00 0.69 40 1006.0
20260507191145 18 217 0.0 11.3 0.00 0.00 0.69 38 1006.0
20260507191019 18 190 0.0 0.0 0.00 0.79 0.69 40 1005.9
20260507190951 18 231 0.0 0.0 0.00 0.00 0.69 40 1006.1
20260507190935 18 202 0.0 0.0 0.00 0.00 0.69 40 1006.1
20260507190835 17 255 0.0 0.0 0.00 0.00 0.69 40 1006.1
20260507190733 17 257 0.0 0.0 0.00 0.00 0.69 41 1006.1
20260507190633 17 281 0.0 0.0 0.00 0.00 0.69 41 1006.1
20260507190534 17 174 0.0 0.0 0.00 0.79 0.69 40 1005.9
20260507190532 17 174 0.0 0.0 0.00 0.00 0.69 40 1006.1
20260507190432 17 174 0.0 0.0 0.00 0.00 0.69 39 1006.1
20260507190332 17 174 0.0 0.0 0.00 0.00 0.69 39 1006.1
20260507190231 17 175 0.0 0.0 0.00 0.00 0.69 36 1006.1
20260507190215 17 47 0.0 0.0 0.00 0.00 0.69 35 1006.2
20260507190131 17 175 0.0 0.0 0.00 0.00 0.69 35 1006.1
20260507190058 17 59 0.0 0.0 0.00 0.00 0.69 35 1006.2
20260507190019 17 49 0.0 0.0 0.00 0.79 0.69 35 1006.0
20260507185944 17 155 0.0 4.8 0.00 0.00 0.69 36 1006.2
20260507185938 17 47 0.0 4.8 0.00 0.00 0.69 35 1006.2
20260507185810 17 200 0.0 4.8 0.00 0.00 0.69 36 1006.2
20260507185803 17 155 0.0 4.8 0.00 0.00 0.69 36 1006.2
20260507185549 17 246 0.0 4.8 0.00 0.79 0.69 37 1006.0
20260507185541 17 255 0.0 4.8 0.00 0.00 0.69 37 1006.1
20260507185533 17 249 0.0 4.8 0.00 0.00 0.69 37 1006.2
20260507185326 17 317 0.0 4.8 0.00 0.00 0.69 37 1006.2
20260507185226 17 0 0.0 4.8 0.00 0.00 0.69 35 1006.2
20260507185125 17 321 0.0 4.8 0.00 0.00 0.69 37 1006.3
20260507185025 17 328 0.0 4.8 0.00 0.00 0.69 36 1006.3
20260507185019 17 19 0.0 4.8 0.00 0.79 0.69 36 1006.1
20260507184950 17 19 0.0 4.8 0.00 0.00 0.69 36 1006.3
20260507184924 17 0 0.0 1.6 0.00 0.00 0.69 36 1006.3
20260507184838 17 0 0.0 1.6 0.00 0.00 0.69 38 1006.3
20260507184833 17 0 0.0 1.6 0.00 0.00 0.69 36 1006.3
20260507184650 17 0 0.0 1.6 0.00 0.00 0.69 37 1006.4
20260507184537 17 355 0.0 1.6 0.00 0.00 0.69 40 1006.4
20260507184529 17 344 0.0 1.6 0.00 0.00 0.69 40 1006.4
20260507184519 17 355 0.0 1.6 0.00 0.79 0.69 40 1006.2
20260507184322 17 37 0.0 1.6 0.00 0.00 0.69 38 1006.4
20260507184240 17 38 0.0 1.6 0.00 0.00 0.69 39 1006.4
20260507184127 17 32 0.0 1.6 0.00 0.00 0.69 37 1006.4
20260507184019 17 38 0.0 1.6 0.00 0.79 0.69 38 1006.2
20260507183951 17 355 0.0 1.6 0.00 0.00 0.69 38 1006.4
20260507183917 17 350 0.0 1.6 0.00 0.00 0.69 36 1006.4
20260507183817 18 5 0.0 1.6 0.00 0.00 0.69 36 1006.3
20260507183725 18 355 0.0 6.4 0.00 0.00 0.69 36 1006.3
20260507183718 18 11 0.0 1.6 0.00 0.00 0.69 36 1006.3
20260507183711 18 14 0.0 6.4 0.00 0.00 0.69 36 1006.4
20260507183705 18 62 0.0 1.6 0.00 0.00 0.69 37 1006.3
20260507183519 18 340 0.0 6.4 0.00 0.79 0.69 36 1006.1
20260507183415 18 332 0.0 6.4 0.00 0.00 0.69 39 1006.3
20260507183315 18 272 0.0 6.4 0.00 0.00 0.69 43 1006.4
20260507183214 18 275 0.0 6.4 0.00 0.00 0.69 40 1006.4
20260507183115 18 283 0.0 6.4 0.00 0.00 0.69 36 1006.4
20260507183035 18 272 0.0 6.4 0.00 0.00 0.69 37 1006.4
20260507183030 18 40 0.0 6.4 0.00 0.00 0.69 37 1006.4
20260507183023 18 41 0.0 6.4 0.00 0.00 0.69 39 1006.4
20260507183019 18 40 0.0 6.4 0.00 0.79 0.69 37 1006.2
20260507182816 18 302 0.0 6.4 0.00 0.00 0.69 36 1006.4
20260507182728 18 344 0.0 6.4 0.00 0.00 0.69 37 1006.3
20260507182724 18 321 0.0 6.4 0.00 0.00 0.69 35 1006.4
20260507182541 18 46 0.0 4.8 0.00 0.00 0.69 36 1006.4
20260507182533 18 351 0.0 4.8 0.00 0.00 0.69 34 1006.4
20260507182519 18 360 0.0 4.8 0.00 0.79 0.69 36 1006.2
20260507182422 18 29 0.0 4.8 0.00 0.00 0.69 34 1006.5
20260507182256 18 309 0.0 4.8 0.00 0.00 0.69 37 1006.6
20260507182252 18 231 0.0 4.8 0.00 0.00 0.69 39 1006.5
20260507182248 18 248 0.0 4.8 0.00 0.00 0.69 37 1006.5
20260507182243 18 273 0.0 4.8 0.00 0.00 0.69 34 1006.5
20260507182019 18 250 0.0 4.8 0.00 0.79 0.69 39 1006.3
20260507182017 18 247 0.0 4.8 0.00 0.00 0.69 37 1006.5
20260507181809 18 248 0.0 4.8 0.00 0.00 0.69 36 1006.6
20260507181722 18 269 0.0 4.8 0.00 0.00 0.69 36 1006.6
20260507181718 18 262 0.0 4.8 0.00 0.00 0.69 36 1006.6
20260507181519 18 313 0.0 4.8 0.00 0.79 0.69 38 1006.5
20260507181508 18 248 0.0 4.8 0.00 0.00 0.69 38 1006.7
20260507181444 18 275 0.0 4.8 0.00 0.00 0.69 39 1006.7
20260507181408 18 281 0.0 4.8 0.00 0.00 0.69 39 1006.7
20260507181306 18 67 0.0 4.8 0.00 0.00 0.69 40 1006.7
20260507181213 17 267 0.0 4.8 0.00 0.00 0.69 40 1006.5
20260507181206 18 87 0.0 4.8 0.00 0.00 0.69 37 1006.6
20260507181105 17 323 0.0 4.8 0.00 0.00 0.69 38 1006.5
20260507181051 17 231 0.0 4.8 0.00 0.00 0.69 40 1006.5
20260507181034 17 233 1.6 4.8 0.00 0.79 0.69 40 1006.3
20260507180904 17 257 0.0 3.2 0.00 0.00 0.69 40 1006.5
20260507180804 17 265 0.0 3.2 0.00 0.00 0.69 40 1006.6
20260507180704 17 254 0.0 3.2 0.00 0.00 0.69 41 1006.6
20260507180603 17 271 0.0 3.2 0.00 0.00 0.69 37 1006.6
20260507180530 17 329 0.0 3.2 0.00 0.00 0.69 40 1006.6
20260507180522 17 329 0.0 3.2 0.00 0.00 0.69 40 1006.6
20260507180519 17 329 0.0 3.2 0.00 0.79 0.69 40 1006.4
20260507180411 17 30 0.0 3.2 0.00 0.00 0.69 37 1006.6
20260507180201 17 321 0.0 0.0 0.00 0.00 0.69 38 1006.7
20260507180101 17 322 0.0 1.6 0.00 0.00 0.69 37 1006.6
20260507180049 17 349 0.0 1.6 0.00 0.79 0.69 37 1006.4
20260507180001 17 355 0.0 1.6 0.00 0.00 0.69 36 1006.6
20260507175940 17 348 0.0 1.6 0.00 0.00 0.69 36 1006.6
20260507175859 17 0 0.0 1.6 0.00 0.00 0.69 36 1006.6
20260507175812 17 323 0.0 1.6 0.00 0.00 0.69 35 1006.7
20260507175807 17 34 0.0 1.6 0.00 0.00 0.69 36 1006.6
20260507175558 17 334 0.0 6.4 0.00 0.00 0.69 37 1006.7
20260507175519 17 24 0.0 6.4 0.00 0.79 0.69 36 1006.5
20260507175457 17 31 0.0 6.4 0.00 0.00 0.69 36 1006.7
20260507175439 17 305 0.0 6.4 0.00 0.00 0.69 36 1006.7
20260507175356 17 28 0.0 6.4 0.00 0.00 0.69 36 1006.7
20260507175256 17 30 0.0 6.4 0.00 0.00 0.69 37 1006.7
20260507175155 17 0 0.0 6.4 0.00 0.00 0.69 37 1006.7
20260507175054 17 0 0.0 6.4 0.00 0.00 0.69 36 1006.7
20260507175019 17 360 0.0 6.4 0.00 0.79 0.69 39 1006.5
20260507174937 17 0 0.0 6.4 0.00 0.00 0.69 38 1006.7
20260507174854 17 0 0.0 6.4 0.00 0.00 0.69 36 1006.8
20260507174754 17 0 0.0 6.4 0.00 0.00 0.69 37 1006.8
20260507174654 17 0 0.0 6.4 0.00 0.00 0.69 38 1006.9
20260507174553 17 0 0.0 3.2 0.00 0.00 0.69 39 1006.9
20260507174534 17 360 0.0 1.6 0.00 0.79 0.69 36 1006.6
20260507174435 17 0 0.0 3.2 0.00 0.00 0.69 39 1006.8
20260507174418 17 0 0.0 1.6 0.00 0.00 0.69 39 1006.8
20260507174414 17 0 0.0 1.6 0.00 0.00 0.69 38 1006.9
20260507174410 17 0 0.0 3.2 0.00 0.00 0.69 40 1006.9
20260507174119 17 0 0.0 1.6 0.00 0.00 0.69 38 1006.9
20260507174034 17 360 0.0 1.6 0.00 0.79 0.69 39 1006.6
20260507174006 17 0 0.0 1.6 0.00 0.00 0.69 39 1006.8
20260507173957 17 0 0.0 1.6 0.00 0.00 0.69 40 1006.8
20260507173749 17 0 0.0 1.6 0.00 0.00 0.69 37 1006.8
20260507173711 17 0 0.0 1.6 0.00 0.00 0.69 39 1006.9
20260507173558 17 0 0.0 1.6 0.00 0.00 0.69 39 1006.9
20260507173519 17 360 0.0 3.2 0.00 0.79 0.69 37 1006.9
20260507173432 17 0 0.0 3.2 0.00 0.00 0.69 39 1007.0
20260507173349 17 0 0.0 3.2 0.00 0.00 0.69 39 1007.0
20260507173248 17 0 0.0 6.4 0.00 0.00 0.69 37 1007.0
20260507173148 17 0 0.0 9.7 0.00 0.00 0.69 39 1007.1
20260507173048 17 0 0.0 22.5 0.00 0.00 0.69 38 1007.1
20260507173020 17 360 0.0 22.5 0.00 0.79 0.69 41 1007.1
20260507172930 17 0 0.0 22.5 0.00 0.00 0.69 41 1007.2
20260507172900 17 0 0.0 22.5 0.00 0.00 0.69 41 1007.2
20260507172856 17 0 0.0 22.5 0.00 0.00 0.69 43 1007.1
20260507172710 17 0 0.0 22.5 0.00 0.00 0.69 36 1007.2
20260507172706 17 0 0.0 22.5 0.00 0.00 0.69 39 1007.2
20260507172701 17 0 0.0 22.5 0.00 0.00 0.69 37 1007.2
20260507172543 17 0 0.0 22.5 0.00 0.00 0.69 37 1007.2
20260507172519 17 360 0.0 22.5 0.00 0.79 0.69 36 1007.1
20260507172431 17 0 0.0 22.5 0.00 0.00 0.69 37 1007.2
20260507172425 16 0 1.6 17.7 0.00 0.00 0.69 42 1007.3
20260507172420 17 0 0.0 22.5 0.00 0.00 0.69 41 1007.3
20260507172157 17 0 0.0 6.4 0.00 0.00 0.69 38 1007.2
20260507172148 17 0 0.0 17.7 0.00 0.00 0.69 39 1007.2
20260507172139 17 0 1.6 17.7 0.00 0.00 0.69 42 1007.2
20260507172019 17 360 0.0 16.1 0.00 0.79 0.69 39 1007.1
20260507171702 16 0 1.6 17.7 0.00 0.00 0.69 38 1007.4
20260507171658 16 0 1.6 17.7 0.00 0.00 0.69 40 1007.2
20260507171534 16 360 0.0 16.1 0.00 0.79 0.69 40 1007.3
20260507171428 16 0 1.6 17.7 0.00 0.00 0.69 38 1007.4
20260507171339 16 0 1.6 17.7 0.00 0.00 0.69 39 1007.4
20260507171236 16 0 1.6 17.7 0.00 0.00 0.69 39 1007.4
20260507171137 16 0 0.0 17.7 0.00 0.00 0.69 40 1007.4
20260507171049 16 360 0.0 9.7 0.00 0.79 0.69 41 1007.3
20260507171038 16 0 0.0 9.7 0.00 0.00 0.69 41 1007.3
20260507170929 16 0 0.0 9.7 0.00 0.00 0.69 42 1007.4
20260507170856 16 0 0.0 9.7 0.00 0.00 0.69 38 1007.5
20260507170743 16 0 0.0 9.7 0.00 0.00 0.69 40 1007.4
20260507170601 16 0 0.0 1.6 0.00 0.00 0.69 39 1007.5
20260507170519 16 360 0.0 1.6 0.00 0.79 0.69 39 1007.4
20260507170440 16 0 0.0 1.6 0.00 0.00 0.69 39 1007.5
20260507170233 16 0 0.0 1.6 0.00 0.00 0.69 45 1007.6
20260507170157 16 0 0.0 6.4 0.00 0.00 0.69 42 1007.6
20260507170043 16 0 0.0 12.9 0.00 0.00 0.69 42 1007.7
20260507170019 16 360 0.0 12.9 0.00 0.79 0.69 41 1007.6
20260507165926 16 0 0.0 12.9 0.00 0.00 0.69 43 1007.7
20260507165830 16 0 0.0 12.9 0.00 0.00 0.69 42 1007.6
20260507165729 16 0 0.0 12.9 0.00 0.00 0.69 40 1007.7
20260507165628 16 0 0.0 12.9 0.00 0.00 0.69 39 1007.7
20260507165528 16 0 0.0 12.9 0.00 0.00 0.69 40 1007.7
20260507165519 16 360 0.0 12.9 0.00 0.79 0.69 41 1007.6
20260507165429 16 0 0.0 12.9 0.00 0.00 0.69 40 1007.7
20260507165327 16 0 0.0 12.9 0.00 0.00 0.69 41 1007.7
20260507165227 16 0 0.0 12.9 0.00 0.00 0.69 38 1007.7
20260507165139 16 0 0.0 1.6 0.00 0.00 0.69 39 1007.7
20260507165135 16 0 0.0 6.4 0.00 0.00 0.69 41 1007.7
20260507165034 16 360 0.0 0.0 0.00 0.79 0.69 39 1007.6
20260507164927 16 0 0.0 1.6 0.00 0.00 0.69 41 1007.7
20260507164825 16 0 0.0 1.6 0.00 0.00 0.69 37 1007.7
20260507164725 16 0 0.0 1.6 0.00 0.00 0.69 40 1007.7
20260507164638 16 0 0.0 1.6 0.00 0.00 0.69 41 1007.7
20260507164634 16 0 0.0 1.6 0.00 0.00 0.69 40 1007.7
20260507164519 16 360 0.0 0.0 0.00 0.79 0.69 41 1007.6
20260507164423 16 0 0.0 0.0 0.00 0.00 0.69 41 1007.0
20260507163808 16 0 0.0 6.4 0.00 0.79 0.69 40 1007.9
20260507163708 16 0 0.0 6.4 0.00 0.79 0.69 40 1007.9
20260507163621 16 0 0.0 6.4 0.00 0.79 0.69 43 1007.9
20260507163616 16 0 0.0 6.4 0.00 0.79 0.69 41 1007.9
20260507163535 16 360 0.0 6.4 0.00 0.79 0.69 43 1007.8
20260507163433 16 0 0.0 4.8 0.00 0.79 0.69 40 1007.8
20260507163406 16 0 0.0 6.4 0.00 0.79 0.69 43 1007.8
20260507163321 16 0 0.0 6.4 0.00 0.79 0.69 42 1007.8
20260507163206 16 0 0.0 4.8 0.00 0.79 0.69 40 1007.8
20260507163132 16 0 0.0 16.1 0.00 0.79 0.69 39 1007.8
20260507163128 16 0 0.0 16.1 0.00 0.79 0.69 40 1007.8
20260507163123 16 0 0.0 4.8 0.00 0.79 0.69 40 1007.7
20260507163019 16 360 0.0 12.9 0.00 0.79 0.69 39 1007.7
20260507162804 16 0 0.0 16.1 0.00 0.79 0.69 43 1007.6
20260507162712 16 0 0.0 16.1 0.00 0.79 0.69 44 1007.6
20260507162703 16 0 0.0 16.1 0.00 0.79 0.69 42 1007.6
20260507162617 16 0 0.0 16.1 0.00 0.79 0.69 41 1007.6
20260507162612 16 0 0.0 16.1 0.00 0.79 0.69 43 1007.7
20260507162519 16 360 0.0 14.5 0.00 0.79 0.69 41 1007.5
20260507162402 16 0 0.0 16.1 0.00 0.79 0.69 43 1007.7
20260507162300 16 0 0.0 16.1 0.00 0.79 0.69 42 1007.8
20260507162210 16 0 0.0 16.1 0.00 0.79 0.69 41 1007.8
20260507162159 16 0 0.0 16.1 0.00 0.79 0.69 41 1007.8
20260507162059 16 0 0.0 16.1 0.00 0.79 0.69 41 1007.8
20260507162019 16 360 12.9 14.5 0.00 0.79 0.69 44 1007.6
20260507161959 16 0 0.0 12.9 0.00 0.79 0.69 44 1007.7
20260507161858 16 0 0.0 8.0 0.00 0.79 0.69 44 1007.7
20260507161757 16 0 0.0 8.0 0.00 0.79 0.69 42 1007.8
20260507161709 16 0 0.0 8.0 0.00 0.79 0.69 41 1007.9
20260507161657 16 0 0.0 8.0 0.00 0.79 0.69 41 1007.9
20260507161556 16 0 0.0 8.0 0.00 0.79 0.69 40 1007.9
20260507161519 16 360 0.0 8.0 0.00 0.79 0.69 40 1007.8
20260507161456 16 0 0.0 8.0 0.00 0.79 0.69 42 1007.9
20260507161355 16 0 0.0 8.0 0.00 0.81 0.69 42 1007.9
20260507161255 16 0 0.0 6.4 0.00 0.81 0.69 43 1007.9
20260507161209 16 0 0.0 6.4 0.00 0.81 0.69 44 1007.9
20260507161155 16 0 0.0 6.4 0.00 0.81 0.69 44 1007.9
20260507161053 16 0 0.0 6.4 0.00 0.81 0.69 43 1008.0
20260507161019 16 360 0.0 6.4 0.00 0.81 0.69 43 1008.0
20260507160953 16 0 0.0 6.4 0.00 0.81 0.69 42 1008.1
20260507160852 16 0 0.0 6.4 0.00 0.81 0.69 43 1008.1
20260507160812 16 0 0.0 8.0 0.00 0.81 0.69 45 1008.1
20260507160807 16 0 0.0 6.4 0.00 0.81 0.69 42 1008.0
20260507160759 16 0 0.0 6.4 0.00 0.81 0.69 45 1008.1
20260507160552 16 0 0.0 8.0 0.00 0.81 0.69 43 1007.9
20260507160519 16 360 0.0 8.0 0.00 0.81 0.69 45 1007.9
20260507160452 16 0 0.0 8.0 0.00 0.81 0.69 44 1008.0
20260507160351 16 0 0.0 8.0 0.00 0.81 0.69 43 1007.9
20260507160251 16 0 0.0 8.0 0.00 0.81 0.69 43 1007.9
20260507160208 16 0 0.0 8.0 0.00 0.81 0.69 44 1008.0
20260507160150 16 0 0.0 8.0 0.00 0.81 0.69 44 1008.0
20260507160050 16 0 0.0 8.0 0.00 0.81 0.69 43 1008.0
20260507160019 16 360 0.0 8.0 0.00 0.81 0.69 45 1007.9
20260507155949 16 0 0.0 8.0 0.00 0.81 0.69 45 1008.0
20260507155903 16 0 0.0 8.0 0.00 0.81 0.69 46 1008.0
20260507155858 16 0 0.0 8.0 0.00 0.81 0.69 47 1008.1
20260507155706 16 0 0.0 8.0 0.00 0.84 0.69 46 1007.9
20260507155648 16 0 0.0 1.6 0.00 0.84 0.69 46 1007.9
20260507155546 16 0 0.0 16.1 0.00 0.84 0.69 49 1007.9
20260507155519 16 360 0.0 14.5 0.00 0.84 0.69 50 1007.8
20260507155446 16 0 0.0 16.1 0.00 0.84 0.69 50 1007.9
20260507155359 15 0 0.0 16.1 0.00 0.84 0.69 49 1008.0
20260507155354 15 0 0.0 16.1 0.00 0.84 0.69 46 1007.9
20260507155204 15 0 0.0 16.1 0.00 0.84 0.69 47 1005.1
20260507155144 15 0 0.0 16.1 0.00 0.86 0.69 47 1005.1
20260507155044 15 0 0.0 16.1 0.00 0.86 0.69 46 1005.1
20260507155020 15 360 0.0 14.5 0.00 0.86 0.69 47 1005.1
20260507154943 15 0 0.0 16.1 0.00 0.86 0.69 47 1005.1
20260507154915 15 0 0.0 16.1 0.00 0.86 0.69 47 1004.9
20260507154911 15 0 0.0 16.1 0.00 0.86 0.69 49 1004.9
20260507154906 15 0 0.0 16.1 0.00 0.86 0.69 49 1005.0
20260507154749 15 0 0.0 16.1 0.00 0.86 0.69 47 1004.9
20260507154541 15 0 0.0 8.0 0.00 0.86 0.69 49 1007.3
20260507154534 15 360 0.0 8.0 0.00 0.86 0.69 48 1007.2
20260507154441 15 0 0.0 8.0 0.00 0.86 0.69 48 1007.3
20260507154355 15 0 0.0 8.0 0.00 0.89 0.69 47 1004.4
20260507154350 15 0 0.0 8.0 0.00 0.89 0.69 47 1004.4
20260507154200 15 0 0.0 8.0 0.00 0.89 0.69 47 1004.0
20260507154154 15 0 0.0 8.0 0.00 0.89 0.69 47 1004.0
20260507154149 15 0 0.0 8.0 0.00 0.89 0.69 46 1004.0
20260507154019 15 360 0.0 8.0 0.00 0.89 0.69 47 1004.0
20260507153939 15 0 0.0 8.0 0.00 0.89 0.69 46 1004.0
20260507153839 15 0 0.0 8.0 0.00 0.91 0.69 46 1004.0
20260507153739 15 0 0.0 8.0 0.00 0.91 0.69 48 1004.0
20260507153701 15 0 0.0 8.0 0.00 0.91 0.69 48 1004.0
20260507153638 15 338 0.0 8.0 0.00 0.91 0.69 48 1004.0
20260507153536 15 310 0.0 6.4 0.00 0.91 0.69 50 1004.0
20260507153519 15 360 0.0 6.4 0.00 0.91 0.69 50 1004.0
20260507153436 15 0 0.0 6.4 0.00 0.91 0.69 50 1004.0
20260507153336 15 0 0.0 6.4 0.00 0.91 0.69 48 1004.0
20260507153235 15 321 0.0 6.4 0.00 0.91 0.69 48 1004.0
20260507153201 15 0 0.0 6.4 0.00 0.94 0.69 48 1004.0
20260507153149 15 0 0.0 6.4 0.00 0.94 0.69 47 1004.0
20260507153143 15 0 0.0 6.4 0.00 0.94 0.69 50 1004.0
20260507153019 15 315 0.0 6.4 0.00 0.94 0.69 47 1004.0
20260507152934 15 329 0.0 6.4 0.00 0.94 0.69 47 1004.0
20260507152833 15 37 0.0 6.4 0.00 0.94 0.69 48 1003.9
20260507152733 15 33 0.0 6.4 0.00 0.97 0.69 45 1003.9
20260507152658 15 336 0.0 6.4 0.00 0.97 0.69 46 1003.9
20260507152644 16 39 0.0 4.8 0.00 0.97 0.69 50 1003.9
20260507152639 15 15 0.0 6.4 0.00 0.97 0.69 46 1003.9
20260507152549 16 348 0.0 4.8 0.00 0.97 0.69 50 1003.8
20260507152431 16 349 0.0 4.8 0.00 0.97 0.69 49 1003.8
20260507152330 16 355 0.0 4.8 0.00 0.97 0.69 46 1003.8
20260507152230 16 342 0.0 4.8 0.00 0.97 0.69 48 1003.8
20260507152157 16 347 0.0 4.8 0.00 0.97 0.69 49 1003.8
20260507152129 16 22 0.0 4.8 0.00 0.99 0.69 49 1003.8
20260507152028 16 343 0.0 4.8 0.00 0.99 0.69 51 1003.9
20260507152019 16 322 0.0 4.8 0.00 0.99 0.69 51 1004.0
20260507151928 16 264 0.0 4.8 0.00 0.99 0.69 53 1003.9
20260507151827 15 271 0.0 4.8 0.00 0.99 0.69 52 1004.1
20260507151726 15 0 0.0 3.2 0.00 0.99 0.69 51 1004.0
20260507151658 15 0 0.0 3.2 0.00 1.02 0.69 53 1003.9
20260507151625 15 0 0.0 3.2 0.00 1.02 0.69 53 1003.9
20260507151539 15 278 0.0 3.2 0.00 1.02 0.69 53 1003.8
20260507151534 15 0 0.0 3.2 0.00 1.02 0.69 55 1003.8
20260507151324 15 0 0.0 12.9 0.00 1.02 0.69 56 1003.9
20260507151224 15 0 0.0 12.9 0.00 1.02 0.69 60 1003.9
20260507151157 15 0 0.0 12.9 0.00 1.02 0.69 60 1004.0
20260507151123 15 0 0.0 12.9 0.00 1.04 0.69 58 1004.0
20260507151023 15 0 0.0 12.9 0.00 1.04 0.69 55 1003.9
20260507151019 15 360 0.0 12.9 0.00 1.04 0.69 53 1003.8
20260507151010 15 0 0.0 12.9 0.00 1.04 0.69 54 1003.8
20260507151006 15 0 0.0 12.9 0.00 1.04 0.69 54 1003.8
20260507151002 15 0 0.0 12.9 0.00 1.04 0.69 51 1003.8
20260507150955 15 0 0.0 12.9 0.00 1.04 0.69 53 1003.8
20260507150946 15 0 0.0 12.9 0.00 1.04 0.69 52 1003.7
20260507150522 15 0 0.0 12.9 0.00 1.04 0.69 50 1003.9
20260507150519 15 360 0.0 12.9 0.00 1.04 0.69 50 1003.9
20260507150426 15 350 0.0 8.0 0.00 1.04 0.69 55 1004.0
20260507150422 15 0 0.0 12.9 0.00 1.04 0.69 53 1003.9
20260507150321 15 0 0.0 8.0 0.00 1.04 0.69 52 1003.9
20260507150305 15 18 0.0 8.0 0.00 1.04 0.69 55 1003.9
20260507150120 15 0 0.0 0.0 0.00 1.04 0.69 57 1004.0
20260507150021 15 0 0.0 0.0 0.00 1.04 0.69 57 1004.0
20260507150019 15 360 0.0 1.6 0.00 1.04 0.69 57 1004.0
20260507145919 15 0 0.0 4.8 0.00 1.04 0.69 56 1004.0
20260507145818 15 0 0.0 4.8 0.00 1.07 0.69 56 1004.0
20260507145737 14 0 0.0 9.7 0.00 1.07 0.69 57 1004.0
20260507145732 14 0 0.0 9.7 0.00 1.07 0.69 57 1004.0
20260507145725 14 0 0.0 9.7 0.00 1.07 0.69 57 1004.0
20260507145535 14 360 0.0 9.7 0.00 1.07 0.69 54 1004.1
20260507145529 14 0 0.0 9.7 0.00 1.07 0.69 54 1004.0
20260507145416 14 0 0.0 9.7 0.00 1.07 0.69 56 1004.1
20260507145316 14 0 0.0 9.7 0.00 1.07 0.69 56 1004.1
20260507145306 14 0 0.0 9.7 0.00 1.07 0.69 56 1004.0
20260507145116 13 0 0.0 9.7 0.00 1.07 0.69 56 1004.1
20260507145019 13 360 0.0 9.7 0.00 1.07 0.69 55 1004.0
20260507145015 13 0 0.0 9.7 0.00 1.07 0.69 55 1004.0
20260507144914 13 0 0.0 9.7 0.00 1.07 0.69 56 1006.7
20260507144815 13 0 0.0 9.7 0.00 1.07 0.69 56 1006.7
20260507144714 13 0 0.0 4.8 0.00 1.07 0.69 59 1008.1
20260507144655 13 0 0.0 4.8 0.00 1.07 0.69 58 1008.1
20260507144629 13 0 0.0 4.8 0.00 1.07 0.69 59 1008.1
20260507144623 13 0 0.0 4.8 0.00 1.07 0.69 58 1008.1
20260507144519 13 360 0.0 4.8 0.00 1.07 0.69 59 1008.1
20260507144413 13 0 0.0 4.8 0.00 1.07 0.69 57 1008.1
20260507144312 13 0 0.0 4.8 0.00 1.09 0.69 55 1008.1
20260507144212 13 0 0.0 4.8 0.00 1.09 0.69 56 1008.1
20260507144156 13 0 0.0 4.8 0.00 1.09 0.69 55 1008.1
20260507144112 14 0 0.0 4.8 0.00 1.09 0.69 56 1008.2
20260507144019 14 360 0.0 8.0 0.00 1.09 0.69 57 1008.1
20260507144009 14 0 0.0 8.0 0.00 1.09 0.69 57 1008.2
20260507143923 13 0 0.0 8.0 0.00 1.09 0.69 59 1008.1
20260507143917 13 0 0.0 8.0 0.00 1.09 0.69 61 1008.1
20260507143708 13 0 0.0 8.0 0.00 1.09 0.69 57 1008.1
20260507143655 13 0 0.0 9.7 0.00 1.09 0.69 57 1008.1
20260507143621 13 0 0.0 9.7 0.00 1.09 0.69 62 1008.1
20260507143616 13 0 0.0 9.7 0.00 1.09 0.69 57 1008.1
20260507143549 13 360 0.0 9.7 0.00 1.09 0.69 62 1008.1
20260507143420 13 0 0.0 9.7 0.00 1.12 0.69 60 1008.1
20260507143414 13 0 0.0 9.7 0.00 1.12 0.69 61 1008.1
20260507143206 13 0 0.0 9.7 0.00 1.12 0.69 59 1008.3
20260507143154 13 0 0.0 9.7 0.00 1.12 0.69 59 1008.3
20260507143118 13 0 0.0 9.7 0.00 1.12 0.69 59 1008.3
20260507143113 13 0 0.0 9.7 0.00 1.12 0.69 59 1008.2
20260507143019 13 360 0.0 9.7 0.00 1.12 0.69 59 1008.3
20260507142902 13 0 0.0 9.7 0.00 1.12 0.69 59 1008.3
20260507142802 13 0 0.0 9.7 0.00 1.12 0.69 59 1004.0
20260507142653 13 0 0.0 9.7 0.00 1.14 0.69 61 1004.0
20260507142602 13 9 0.0 6.4 0.00 1.14 0.69 60 1004.2
20260507142550 13 22 0.0 6.4 0.00 1.14 0.69 60 1007.9
20260507142502 13 22 0.0 8.0 0.00 1.14 0.69 60 1007.9
20260507142401 13 284 0.0 8.0 0.00 1.14 0.69 60 1007.9
20260507142301 13 316 0.0 8.0 0.00 1.14 0.69 59 1007.9
20260507142156 13 342 0.0 8.0 0.00 1.14 0.69 60 1007.9
20260507142127 13 9 0.0 8.0 0.00 1.14 0.69 59 1007.0
20260507142123 13 0 0.0 8.0 0.00 1.14 0.69 61 1007.0
20260507142117 13 295 0.0 8.0 0.00 1.14 0.69 60 1007.9
20260507142019 13 9 0.0 6.4 0.00 1.14 0.69 59 1007.0
20260507141757 13 0 0.0 8.0 0.00 1.14 0.69 59 1007.3
20260507141653 13 0 0.0 8.0 0.00 1.14 0.69 59 1005.1
20260507141556 13 0 0.0 8.0 0.00 1.14 0.69 59 1005.1
20260507141519 13 360 0.0 8.0 0.00 1.14 0.69 60 1005.1
20260507141455 13 0 1.6 8.0 0.00 1.14 0.69 60 1005.1
20260507141409 13 0 1.6 12.9 0.00 1.14 0.69 58 1005.4
20260507141355 13 0 1.6 12.9 0.00 1.14 0.69 59 1005.1